Time,TemperatureF,DewpointF,PressureIn,WindDirection,WindDirectionDegrees,WindSpeedMPH,WindSpeedGustMPH,Humidity,HourlyPrecipIn,Conditions,Clouds,dailyrainin,SolarRadiationWatts/m^2,SoftwareType,DateUTC
2013-01-11 00:01:00,35.5,35.0,29.69,East,101,0.0,2.0,98,0.00,,,0.00,0,Wunderground v.1.15,2013-01-11 06:01:00,
2013-01-11 00:02:00,35.5,35.0,29.69,East,101,0.0,2.0,98,0.00,,,0.00,0,Wunderground v.1.15,2013-01-11 06:02:00,
2013-01-11 00:03:00,35.5,35.0,29.69,East,101,0.0,2.0,98,0.00,,,0.00,0,Wunderground v.1.15,2013-01-11 06:03:00,
2013-01-11 00:04:00,35.5,35.0,29.69,East,101,0.0,2.0,98,0.00,,,0.00,0,Wunderground v.1.15,2013-01-11 06:04:00,
2013-01-11 00:09:00,35.5,35.0,29.69,East,101,0.0,2.0,98,0.00,,,0.00,0,Wunderground v.1.15,2013-01-11 06:09:00,
2013-01-11 00:12:00,35.7,35.2,29.69,East,101,0.0,0.0,98,0.00,,,0.00,0,Wunderground v.1.15,2013-01-11 06:12:00,
2013-01-11 00:14:00,35.6,35.1,29.69,East,101,2.0,2.0,98,0.00,,,0.00,0,Wunderground v.1.15,2013-01-11 06:14:00,
2013-01-11 00:19:00,35.3,34.8,29.69,East,101,0.0,2.0,98,0.00,,,0.00,0,Wunderground v.1.15,2013-01-11 06:19:00,
2013-01-11 00:20:00,35.3,34.8,29.69,East,101,0.0,1.0,98,0.00,,,0.00,0,Wunderground v.1.15,2013-01-11 06:20:00,
2013-01-11 00:21:00,35.3,34.8,29.69,East,101,0.0,1.0,98,0.00,,,0.00,0,Wunderground v.1.15,2013-01-11 06:21:00,
2013-01-11 00:22:00,35.4,34.9,29.69,East,101,0.0,1.0,98,0.00,,,0.00,0,Wunderground v.1.15,2013-01-11 06:22:00,
2013-01-11 00:24:00,35.5,35.0,29.70,East,101,0.0,1.0,98,0.00,,,0.00,0,Wunderground v.1.15,2013-01-11 06:24:00,
2013-01-11 00:26:00,35.5,35.0,29.69,East,101,0.0,1.0,98,0.00,,,0.00,0,Wunderground v.1.15,2013-01-11 06:26:00,
2013-01-11 00:29:00,35.5,35.0,29.69,ESE,103,2.0,2.0,98,0.00,,,0.00,0,Wunderground v.1.15,2013-01-11 06:29:00,
2013-01-11 00:30:00,35.5,35.0,29.69,ESE,110,4.0,4.0,98,0.00,,,0.00,0,Wunderground v.1.15,2013-01-11 06:30:00,
2013-01-11 00:33:00,35.6,35.1,29.69,ESE,103,2.0,4.0,98,0.00,,,0.00,0,Wunderground v.1.15,2013-01-11 06:33:00,
2013-01-11 00:34:00,35.5,35.0,29.69,ESE,105,4.0,4.0,98,0.00,,,0.00,0,Wunderground v.1.15,2013-01-11 06:34:00,
2013-01-11 00:36:00,35.5,35.0,29.69,ESE,103,3.0,4.0,98,0.00,,,0.00,0,Wunderground v.1.15,2013-01-11 06:36:00,
2013-01-11 00:39:00,35.6,35.1,29.69,ESE,109,4.0,4.0,98,0.00,,,0.00,0,Wunderground v.1.15,2013-01-11 06:39:00,
2013-01-11 00:41:00,35.6,35.1,29.69,ESE,104,3.0,3.0,98,0.00,,,0.00,0,Wunderground v.1.15,2013-01-11 06:41:00,
2013-01-11 00:43:00,35.6,35.1,29.69,ESE,120,5.0,5.0,98,0.00,,,0.00,0,Wunderground v.1.15,2013-01-11 06:43:00,
2013-01-11 00:45:00,35.5,35.0,29.69,ESE,105,3.0,5.0,98,0.00,,,0.00,0,Wunderground v.1.15,2013-01-11 06:45:00,
2013-01-11 00:46:00,35.5,35.0,29.69,ESE,105,3.0,5.0,98,0.00,,,0.00,0,Wunderground v.1.15,2013-01-11 06:46:00,
2013-01-11 00:47:00,35.5,35.0,29.69,ESE,102,3.0,5.0,98,0.00,,,0.00,0,Wunderground v.1.15,2013-01-11 06:47:00,
2013-01-11 00:51:00,35.6,35.1,29.69,ESE,109,2.0,3.0,98,0.00,,,0.00,0,Wunderground v.1.15,2013-01-11 06:51:00,
2013-01-11 00:52:00,35.6,35.1,29.69,ESE,109,3.0,3.0,98,0.00,,,0.00,0,Wunderground v.1.15,2013-01-11 06:52:00,
2013-01-11 00:53:00,35.6,35.1,29.69,ESE,109,2.0,3.0,98,0.00,,,0.00,0,Wunderground v.1.15,2013-01-11 06:53:00,
2013-01-11 00:55:00,35.7,35.2,29.69,ESE,109,3.0,3.0,98,0.00,,,0.00,0,Wunderground v.1.15,2013-01-11 06:55:00,
2013-01-11 00:57:00,35.7,35.2,29.69,ESE,109,2.0,3.0,98,0.00,,,0.00,0,Wunderground v.1.15,2013-01-11 06:57:00,
2013-01-11 00:59:00,35.7,35.2,29.69,ESE,109,2.0,3.0,98,0.00,,,0.00,0,Wunderground v.1.15,2013-01-11 06:59:00,
2013-01-11 01:01:00,35.7,35.2,29.69,ESE,109,4.0,4.0,98,0.00,,,0.00,0,Wunderground v.1.15,2013-01-11 07:01:00,
2013-01-11 01:03:00,35.7,35.2,29.69,ESE,110,2.0,4.0,98,0.00,,,0.00,0,Wunderground v.1.15,2013-01-11 07:03:00,
2013-01-11 01:05:00,35.7,35.2,29.69,ESE,111,3.0,4.0,98,0.00,,,0.00,0,Wunderground v.1.15,2013-01-11 07:05:00,
2013-01-11 01:08:00,35.7,35.2,29.69,ESE,108,3.0,4.0,98,0.00,,,0.00,0,Wunderground v.1.15,2013-01-11 07:08:00,
2013-01-11 01:09:00,35.7,35.2,29.69,ESE,108,2.0,4.0,98,0.00,,,0.00,0,Wunderground v.1.15,2013-01-11 07:09:00,
2013-01-11 01:10:00,35.7,35.2,29.69,ESE,108,2.0,2.0,98,0.00,,,0.00,0,Wunderground v.1.15,2013-01-11 07:10:00,
2013-01-11 01:11:00,35.7,35.2,29.69,ESE,108,2.0,2.0,98,0.00,,,0.00,0,Wunderground v.1.15,2013-01-11 07:11:00,
2013-01-11 01:16:00,35.7,35.2,29.69,ESE,109,3.0,3.0,98,0.00,,,0.00,0,Wunderground v.1.15,2013-01-11 07:16:00,
2013-01-11 01:17:00,35.7,35.2,29.69,ESE,104,3.0,3.0,98,0.00,,,0.00,0,Wunderground v.1.15,2013-01-11 07:17:00,
2013-01-11 01:18:00,35.7,35.2,29.68,ESE,115,5.0,5.0,98,0.00,,,0.00,0,Wunderground v.1.15,2013-01-11 07:18:00,
2013-01-11 01:21:00,35.7,35.2,29.68,ESE,102,4.0,4.0,98,0.00,,,0.00,0,Wunderground v.1.15,2013-01-11 07:21:00,
2013-01-11 01:24:00,35.7,35.2,29.69,ESE,105,5.0,6.0,98,0.00,,,0.00,0,Wunderground v.1.15,2013-01-11 07:24:00,
2013-01-11 01:25:00,35.7,35.2,29.69,ESE,104,2.0,6.0,98,0.00,,,0.00,0,Wunderground v.1.15,2013-01-11 07:25:00,
2013-01-11 01:29:00,35.7,35.2,29.69,ESE,117,3.0,6.0,98,0.00,,,0.00,0,Wunderground v.1.15,2013-01-11 07:29:00,
2013-01-11 01:30:00,35.8,35.3,29.69,ESE,117,4.0,4.0,98,0.00,,,0.00,0,Wunderground v.1.15,2013-01-11 07:30:00,
2013-01-11 01:31:00,35.8,35.3,29.69,ESE,120,4.0,4.0,98,0.00,,,0.00,0,Wunderground v.1.15,2013-01-11 07:31:00,
2013-01-11 01:34:00,35.9,35.4,29.69,SE,124,3.0,4.0,98,0.00,,,0.00,0,Wunderground v.1.15,2013-01-11 07:34:00,
2013-01-11 01:36:00,36.0,35.5,29.69,SE,134,2.0,4.0,98,0.00,,,0.00,0,Wunderground v.1.15,2013-01-11 07:36:00,
2013-01-11 01:37:00,35.9,35.4,29.69,SE,134,2.0,4.0,98,0.00,,,0.00,0,Wunderground v.1.15,2013-01-11 07:37:00,
2013-01-11 01:41:00,35.6,35.1,29.70,SE,145,1.0,3.0,98,0.00,,,0.00,0,Wunderground v.1.15,2013-01-11 07:41:00,
2013-01-11 01:42:00,35.5,35.0,29.70,SE,145,0.0,3.0,98,0.00,,,0.00,0,Wunderground v.1.15,2013-01-11 07:42:00,
2013-01-11 01:48:00,35.2,34.7,29.70,SSE,159,2.0,3.0,98,0.00,,,0.00,0,Wunderground v.1.15,2013-01-11 07:48:00,
2013-01-11 01:49:00,35.2,34.7,29.69,SSE,159,0.0,3.0,98,0.00,,,0.00,0,Wunderground v.1.15,2013-01-11 07:49:00,
2013-01-11 01:51:00,35.1,34.6,29.69,SSE,159,0.0,1.0,98,0.00,,,0.00,0,Wunderground v.1.15,2013-01-11 07:51:00,
2013-01-11 01:52:00,35.0,34.5,29.68,SSE,159,1.0,1.0,98,0.00,,,0.00,0,Wunderground v.1.15,2013-01-11 07:52:00,
2013-01-11 01:54:00,35.0,34.5,29.68,SE,136,2.0,2.0,98,0.00,,,0.00,0,Wunderground v.1.15,2013-01-11 07:54:00,
2013-01-11 01:56:00,35.2,34.7,29.68,SE,127,4.0,4.0,98,0.00,,,0.00,0,Wunderground v.1.15,2013-01-11 07:56:00,
2013-01-11 01:57:00,35.3,34.8,29.68,SE,128,2.0,4.0,98,0.00,,,0.00,0,Wunderground v.1.15,2013-01-11 07:57:00,
2013-01-11 02:00:00,35.6,35.1,29.68,SE,128,1.0,3.0,98,0.00,,,0.00,0,Wunderground v.1.15,2013-01-11 08:00:00,
2013-01-11 02:01:00,35.6,35.1,29.68,SE,129,2.0,3.0,98,0.00,,,0.00,0,Wunderground v.1.15,2013-01-11 08:01:00,
2013-01-11 02:02:00,35.7,35.2,29.68,SE,129,2.0,3.0,98,0.00,,,0.00,0,Wunderground v.1.15,2013-01-11 08:02:00,
2013-01-11 02:03:00,35.6,35.1,29.68,SE,129,2.0,3.0,98,0.00,,,0.00,0,Wunderground v.1.15,2013-01-11 08:03:00,
2013-01-11 02:06:00,35.5,35.0,29.68,SE,129,2.0,3.0,98,0.00,,,0.00,0,Wunderground v.1.15,2013-01-11 08:06:00,
2013-01-11 02:07:00,35.5,35.0,29.68,SE,129,2.0,3.0,98,0.00,,,0.00,0,Wunderground v.1.15,2013-01-11 08:07:00,
2013-01-11 02:09:00,35.7,35.2,29.68,SE,129,3.0,3.0,98,0.00,,,0.00,0,Wunderground v.1.15,2013-01-11 08:09:00,
2013-01-11 02:10:00,35.7,35.2,29.68,SE,130,3.0,4.0,98,0.00,,,0.00,0,Wunderground v.1.15,2013-01-11 08:10:00,
2013-01-11 02:11:00,35.9,35.4,29.68,SE,130,3.0,4.0,98,0.00,,,0.00,0,Wunderground v.1.15,2013-01-11 08:11:00,
2013-01-11 02:13:00,35.9,35.4,29.69,SSE,156,2.0,4.0,98,0.00,,,0.00,0,Wunderground v.1.15,2013-01-11 08:13:00,
2013-01-11 02:15:00,35.7,35.2,29.69,SSE,156,3.0,4.0,98,0.00,,,0.00,0,Wunderground v.1.15,2013-01-11 08:15:00,
2013-01-11 02:16:00,35.6,35.1,29.68,SSE,156,2.0,4.0,98,0.00,,,0.00,0,Wunderground v.1.15,2013-01-11 08:16:00,
2013-01-11 02:18:00,35.5,35.0,29.68,SSE,152,2.0,4.0,98,0.00,,,0.00,0,Wunderground v.1.15,2013-01-11 08:18:00,
2013-01-11 02:21:00,35.7,35.2,29.68,SSE,154,3.0,3.0,98,0.00,,,0.00,0,Wunderground v.1.15,2013-01-11 08:21:00,
2013-01-11 02:23:00,35.7,35.2,29.68,SE,144,1.0,4.0,98,0.00,,,0.00,0,Wunderground v.1.15,2013-01-11 08:23:00,
2013-01-11 02:24:00,35.7,35.2,29.68,SE,144,1.0,4.0,98,0.00,,,0.00,0,Wunderground v.1.15,2013-01-11 08:24:00,
2013-01-11 02:26:00,35.7,35.2,29.68,SSE,159,2.0,4.0,98,0.00,,,0.00,0,Wunderground v.1.15,2013-01-11 08:26:00,
2013-01-11 02:28:00,35.7,35.2,29.67,SSE,168,3.0,4.0,98,0.00,,,0.00,0,Wunderground v.1.15,2013-01-11 08:28:00,
2013-01-11 02:30:00,35.6,35.1,29.68,South,176,1.0,2.0,98,0.00,,,0.00,0,Wunderground v.1.15,2013-01-11 08:30:00,
2013-01-11 02:33:00,35.3,34.8,29.67,South,176,2.0,2.0,98,0.00,,,0.00,0,Wunderground v.1.15,2013-01-11 08:33:00,
2013-01-11 02:34:00,35.2,34.7,29.67,South,176,0.0,2.0,98,0.00,,,0.00,0,Wunderground v.1.15,2013-01-11 08:34:00,
2013-01-11 02:35:00,35.1,34.6,29.67,South,176,0.0,2.0,98,0.00,,,0.00,0,Wunderground v.1.15,2013-01-11 08:35:00,
2013-01-11 02:38:00,34.8,34.3,29.67,South,176,0.0,2.0,98,0.00,,,0.00,0,Wunderground v.1.15,2013-01-11 08:38:00,
2013-01-11 02:40:00,34.8,34.3,29.67,South,176,2.0,2.0,98,0.00,,,0.00,0,Wunderground v.1.15,2013-01-11 08:40:00,
2013-01-11 02:42:00,34.9,34.4,29.67,South,180,2.0,3.0,98,0.00,,,0.00,0,Wunderground v.1.15,2013-01-11 08:42:00,
2013-01-11 02:44:00,35.0,34.5,29.67,South,180,2.0,3.0,98,0.00,,,0.00,0,Wunderground v.1.15,2013-01-11 08:44:00,
2013-01-11 02:45:00,35.0,34.5,29.67,South,182,3.0,3.0,98,0.00,,,0.00,0,Wunderground v.1.15,2013-01-11 08:45:00,
2013-01-11 02:46:00,35.0,34.5,29.67,South,182,3.0,3.0,98,0.00,,,0.00,0,Wunderground v.1.15,2013-01-11 08:46:00,
2013-01-11 02:48:00,35.0,34.5,29.67,South,184,2.0,3.0,98,0.00,,,0.00,0,Wunderground v.1.15,2013-01-11 08:48:00,
2013-01-11 02:51:00,34.9,34.4,29.67,South,184,2.0,3.0,98,0.00,,,0.00,0,Wunderground v.1.15,2013-01-11 08:51:00,
2013-01-11 02:53:00,34.8,34.3,29.66,South,184,2.0,3.0,98,0.00,,,0.00,0,Wunderground v.1.15,2013-01-11 08:53:00,
2013-01-11 02:55:00,34.8,34.3,29.66,South,184,0.0,3.0,98,0.00,,,0.00,0,Wunderground v.1.15,2013-01-11 08:55:00,
2013-01-11 02:56:00,34.7,34.2,29.67,South,184,0.0,3.0,98,0.00,,,0.00,0,Wunderground v.1.15,2013-01-11 08:56:00,
2013-01-11 02:59:00,34.7,34.2,29.66,South,184,0.0,3.0,98,0.00,,,0.00,0,Wunderground v.1.15,2013-01-11 08:59:00,
2013-01-11 03:00:00,34.6,34.1,29.66,South,184,0.0,1.0,98,0.00,,,0.00,0,Wunderground v.1.15,2013-01-11 09:00:00,
2013-01-11 03:01:00,34.6,34.1,29.66,South,184,0.0,1.0,98,0.00,,,0.00,0,Wunderground v.1.15,2013-01-11 09:01:00,
2013-01-11 03:03:00,34.6,34.1,29.66,South,184,2.0,2.0,98,0.00,,,0.00,0,Wunderground v.1.15,2013-01-11 09:03:00,
2013-01-11 03:04:00,34.6,34.1,29.66,South,184,2.0,2.0,98,0.00,,,0.00,0,Wunderground v.1.15,2013-01-11 09:04:00,
2013-01-11 03:05:00,34.6,34.1,29.66,South,184,0.0,2.0,98,0.00,,,0.00,0,Wunderground v.1.15,2013-01-11 09:05:00,
2013-01-11 03:07:00,34.5,34.0,29.66,South,184,0.0,2.0,98,0.00,,,0.00,0,Wunderground v.1.15,2013-01-11 09:07:00,
2013-01-11 03:08:00,34.5,34.0,29.66,South,184,0.0,2.0,98,0.00,,,0.00,0,Wunderground v.1.15,2013-01-11 09:08:00,
2013-01-11 03:10:00,34.5,34.0,29.66,South,184,2.0,2.0,98,0.00,,,0.00,0,Wunderground v.1.15,2013-01-11 09:10:00,
2013-01-11 03:11:00,34.6,34.1,29.66,SSE,166,3.0,3.0,98,0.00,,,0.00,0,Wunderground v.1.15,2013-01-11 09:11:00,
2013-01-11 03:12:00,34.7,34.2,29.66,SSE,165,2.0,3.0,98,0.00,,,0.00,0,Wunderground v.1.15,2013-01-11 09:12:00,
2013-01-11 03:14:00,34.7,34.2,29.66,SE,140,3.0,3.0,98,0.00,,,0.00,0,Wunderground v.1.15,2013-01-11 09:14:00,
2013-01-11 03:15:00,34.7,34.2,29.66,SE,141,4.0,4.0,98,0.00,,,0.00,0,Wunderground v.1.15,2013-01-11 09:15:00,
2013-01-11 03:16:00,34.8,34.3,29.66,SE,144,4.0,4.0,98,0.00,,,0.00,0,Wunderground v.1.15,2013-01-11 09:16:00,
2013-01-11 03:20:00,35.3,34.8,29.66,SE,125,3.0,3.0,98,0.00,,,0.00,0,Wunderground v.1.15,2013-01-11 09:20:00,
2013-01-11 03:21:00,35.3,34.8,29.65,SE,125,3.0,3.0,98,0.00,,,0.00,0,Wunderground v.1.15,2013-01-11 09:21:00,
2013-01-11 03:26:00,35.6,35.1,29.65,SE,134,3.0,5.0,98,0.00,,,0.00,0,Wunderground v.1.15,2013-01-11 09:26:00,
2013-01-11 03:27:00,35.7,35.2,29.65,SE,134,3.0,5.0,98,0.00,,,0.00,0,Wunderground v.1.15,2013-01-11 09:27:00,
2013-01-11 03:28:00,35.8,35.3,29.65,SE,134,3.0,5.0,98,0.00,,,0.00,0,Wunderground v.1.15,2013-01-11 09:28:00,
2013-01-11 03:31:00,36.0,35.5,29.63,East,97,6.0,8.0,98,0.00,,,0.00,0,Wunderground v.1.15,2013-01-11 09:31:00,
2013-01-11 03:33:00,36.0,35.5,29.63,East,93,5.0,8.0,98,0.00,,,0.00,0,Wunderground v.1.15,2013-01-11 09:33:00,
2013-01-11 03:37:00,36.1,35.6,29.64,ESE,119,5.0,8.0,98,0.00,,,0.00,0,Wunderground v.1.15,2013-01-11 09:37:00,
2013-01-11 03:38:00,36.1,35.6,29.64,SE,124,6.0,8.0,98,0.00,,,0.00,0,Wunderground v.1.15,2013-01-11 09:38:00,
2013-01-11 03:40:00,36.3,35.8,29.64,ESE,117,5.0,6.0,98,0.00,,,0.00,0,Wunderground v.1.15,2013-01-11 09:40:00,
2013-01-11 03:42:00,36.5,36.0,29.64,ESE,111,3.0,7.0,98,0.00,,,0.00,0,Wunderground v.1.15,2013-01-11 09:42:00,
2013-01-11 03:43:00,36.5,36.0,29.64,SE,128,4.0,7.0,98,0.00,,,0.00,0,Wunderground v.1.15,2013-01-11 09:43:00,
2013-01-11 03:44:00,36.6,36.1,29.63,SE,128,3.0,7.0,98,0.00,,,0.00,0,Wunderground v.1.15,2013-01-11 09:44:00,
2013-01-11 03:45:00,36.6,36.1,29.63,ESE,123,5.0,7.0,98,0.00,,,0.00,0,Wunderground v.1.15,2013-01-11 09:45:00,
2013-01-11 03:49:00,36.8,36.3,29.64,ESE,123,3.0,7.0,98,0.00,,,0.00,0,Wunderground v.1.15,2013-01-11 09:49:00,
2013-01-11 03:50:00,36.8,36.3,29.63,ESE,123,4.0,4.0,98,0.00,,,0.00,0,Wunderground v.1.15,2013-01-11 09:50:00,
2013-01-11 03:51:00,36.8,36.3,29.63,ESE,123,4.0,5.0,98,0.00,,,0.00,0,Wunderground v.1.15,2013-01-11 09:51:00,
2013-01-11 03:55:00,36.9,36.4,29.64,SE,144,6.0,6.0,98,0.00,,,0.00,0,Wunderground v.1.15,2013-01-11 09:55:00,
2013-01-11 03:56:00,36.8,36.3,29.64,SE,144,5.0,7.0,98,0.00,,,0.00,0,Wunderground v.1.15,2013-01-11 09:56:00,
2013-01-11 03:59:00,36.6,36.1,29.64,SSE,152,6.0,7.0,98,0.00,,,0.00,0,Wunderground v.1.15,2013-01-11 09:59:00,
2013-01-11 04:00:00,36.6,36.1,29.64,SE,140,8.0,8.0,98,0.00,,,0.00,0,Wunderground v.1.15,2013-01-11 10:00:00,
2013-01-11 04:01:00,36.5,36.0,29.63,SE,128,7.0,8.0,98,0.00,,,0.00,0,Wunderground v.1.15,2013-01-11 10:01:00,
2013-01-11 04:02:00,36.5,36.0,29.63,ESE,123,7.0,8.0,98,0.00,,,0.00,0,Wunderground v.1.15,2013-01-11 10:02:00,
2013-01-11 04:06:00,36.5,36.0,29.63,SE,138,7.0,8.0,98,0.00,,,0.00,0,Wunderground v.1.15,2013-01-11 10:06:00,
2013-01-11 04:07:00,36.4,35.9,29.63,SE,145,8.0,8.0,98,0.00,,,0.00,0,Wunderground v.1.15,2013-01-11 10:07:00,
2013-01-11 04:11:00,36.6,36.1,29.61,SE,130,8.0,8.0,98,0.00,,,0.00,0,Wunderground v.1.15,2013-01-11 10:11:00,
2013-01-11 04:12:00,36.7,36.2,29.61,SE,134,6.0,8.0,98,0.00,,,0.00,0,Wunderground v.1.15,2013-01-11 10:12:00,
2013-01-11 04:13:00,36.7,36.2,29.61,SE,139,7.0,8.0,98,0.00,,,0.00,0,Wunderground v.1.15,2013-01-11 10:13:00,
2013-01-11 04:17:00,37.1,36.6,29.61,SE,125,6.0,10.0,98,0.00,,,0.00,0,Wunderground v.1.15,2013-01-11 10:17:00,
2013-01-11 04:18:00,37.1,36.6,29.61,SE,126,4.0,10.0,98,0.00,,,0.00,0,Wunderground v.1.15,2013-01-11 10:18:00,
2013-01-11 04:20:00,37.2,36.7,29.61,SE,134,6.0,6.0,98,0.00,,,0.00,0,Wunderground v.1.15,2013-01-11 10:20:00,
2013-01-11 04:23:00,37.3,36.8,29.60,SE,130,7.0,7.0,98,0.00,,,0.00,0,Wunderground v.1.15,2013-01-11 10:23:00,
2013-01-11 04:24:00,37.3,36.8,29.60,SE,125,6.0,7.0,98,0.00,,,0.00,0,Wunderground v.1.15,2013-01-11 10:24:00,
2013-01-11 04:26:00,37.3,36.8,29.60,SE,135,5.0,7.0,98,0.00,,,0.00,0,Wunderground v.1.15,2013-01-11 10:26:00,
2013-01-11 04:29:00,37.2,36.7,29.60,ESE,120,5.0,8.0,98,0.00,,,0.00,0,Wunderground v.1.15,2013-01-11 10:29:00,
2013-01-11 04:32:00,37.2,36.7,29.59,SE,124,5.0,7.0,98,0.00,,,0.00,0,Wunderground v.1.15,2013-01-11 10:32:00,
2013-01-11 04:35:00,37.1,36.6,29.60,SE,140,6.0,7.0,98,0.00,,,0.00,0,Wunderground v.1.15,2013-01-11 10:35:00,
2013-01-11 04:37:00,36.8,36.3,29.60,SE,138,6.0,7.0,98,0.00,,,0.00,0,Wunderground v.1.15,2013-01-11 10:37:00,
2013-01-11 04:38:00,36.8,36.3,29.59,SE,130,6.0,7.0,98,0.00,,,0.00,0,Wunderground v.1.15,2013-01-11 10:38:00,
2013-01-11 04:41:00,36.8,36.3,29.60,SE,132,5.0,6.0,98,0.00,,,0.00,0,Wunderground v.1.15,2013-01-11 10:41:00,
2013-01-11 04:43:00,36.7,36.2,29.60,SSE,153,7.0,7.0,98,0.00,,,0.00,0,Wunderground v.1.15,2013-01-11 10:43:00,
2013-01-11 04:45:00,36.6,36.1,29.60,SSE,148,7.0,8.0,98,0.00,,,0.00,0,Wunderground v.1.15,2013-01-11 10:45:00,
2013-01-11 04:46:00,36.5,36.0,29.59,SE,140,5.0,8.0,98,0.00,,,0.00,0,Wunderground v.1.15,2013-01-11 10:46:00,
2013-01-11 04:48:00,36.4,35.9,29.59,SE,146,6.0,8.0,98,0.00,,,0.00,0,Wunderground v.1.15,2013-01-11 10:48:00,
2013-01-11 04:50:00,36.5,36.0,29.59,SE,144,6.0,6.0,98,0.00,,,0.00,0,Wunderground v.1.15,2013-01-11 10:50:00,
2013-01-11 04:51:00,36.5,36.0,29.59,SE,135,5.0,8.0,98,0.00,,,0.00,0,Wunderground v.1.15,2013-01-11 10:51:00,
2013-01-11 04:52:00,36.6,36.1,29.59,SE,142,6.0,8.0,98,0.00,,,0.00,0,Wunderground v.1.15,2013-01-11 10:52:00,
2013-01-11 04:53:00,36.6,36.1,29.59,SE,140,6.0,8.0,98,0.00,,,0.00,0,Wunderground v.1.15,2013-01-11 10:53:00,
2013-01-11 04:57:00,36.5,36.0,29.59,SE,141,5.0,8.0,98,0.00,,,0.00,0,Wunderground v.1.15,2013-01-11 10:57:00,
2013-01-11 04:58:00,36.4,35.9,29.59,SE,144,6.0,8.0,98,0.00,,,0.00,0,Wunderground v.1.15,2013-01-11 10:58:00,
2013-01-11 04:59:00,36.4,35.9,29.59,SSE,147,6.0,8.0,98,0.00,,,0.00,0,Wunderground v.1.15,2013-01-11 10:59:00,
2013-01-11 05:00:00,36.4,35.9,29.59,SE,137,6.0,6.0,98,0.00,,,0.00,0,Wunderground v.1.15,2013-01-11 11:00:00,
2013-01-11 05:04:00,36.2,35.7,29.60,South,171,6.0,7.0,98,0.00,,,0.00,0,Wunderground v.1.15,2013-01-11 11:04:00,
2013-01-11 05:05:00,36.2,35.7,29.60,SSE,155,8.0,8.0,98,0.00,,,0.00,0,Wunderground v.1.15,2013-01-11 11:05:00,
2013-01-11 05:06:00,36.2,35.7,29.60,SSE,158,6.0,8.0,98,0.00,,,0.00,0,Wunderground v.1.15,2013-01-11 11:06:00,
2013-01-11 05:10:00,36.2,35.7,29.60,South,171,6.0,6.0,98,0.00,,,0.00,0,Wunderground v.1.15,2013-01-11 11:10:00,
2013-01-11 05:11:00,36.0,35.5,29.61,South,170,6.0,6.0,98,0.00,,,0.00,0,Wunderground v.1.15,2013-01-11 11:11:00,
2013-01-11 05:16:00,35.8,35.3,29.60,SSE,157,7.0,8.0,98,0.00,,,0.00,0,Wunderground v.1.15,2013-01-11 11:16:00,
2013-01-11 05:17:00,35.8,35.3,29.60,SSE,160,6.0,8.0,98,0.00,,,0.00,0,Wunderground v.1.15,2013-01-11 11:17:00,
2013-01-11 05:19:00,35.8,35.3,29.60,SSE,155,7.0,8.0,98,0.00,,,0.00,0,Wunderground v.1.15,2013-01-11 11:19:00,
2013-01-11 05:21:00,35.9,35.4,29.60,SSE,165,9.0,9.0,98,0.00,,,0.00,0,Wunderground v.1.15,2013-01-11 11:21:00,
2013-01-11 05:23:00,36.0,35.5,29.60,SSE,150,8.0,9.0,98,0.00,,,0.00,0,Wunderground v.1.15,2013-01-11 11:23:00,
2013-01-11 05:24:00,36.0,35.5,29.60,SSE,148,6.0,9.0,98,0.00,,,0.00,0,Wunderground v.1.15,2013-01-11 11:24:00,
2013-01-11 05:26:00,36.0,35.5,29.60,SSE,150,8.0,9.0,98,0.00,,,0.00,0,Wunderground v.1.15,2013-01-11 11:26:00,
2013-01-11 05:29:00,35.8,35.3,29.60,SSE,148,6.0,9.0,98,0.00,,,0.00,0,Wunderground v.1.15,2013-01-11 11:29:00,
2013-01-11 05:30:00,35.7,35.2,29.60,SSE,153,4.0,7.0,98,0.00,,,0.00,0,Wunderground v.1.15,2013-01-11 11:30:00,
2013-01-11 05:32:00,35.7,35.2,29.60,SSE,151,6.0,7.0,98,0.00,,,0.00,0,Wunderground v.1.15,2013-01-11 11:32:00,
2013-01-11 05:33:00,35.6,35.1,29.60,SSE,148,7.0,7.0,98,0.00,,,0.00,0,Wunderground v.1.15,2013-01-11 11:33:00,
2013-01-11 05:35:00,35.6,35.1,29.60,SSE,148,5.0,7.0,98,0.00,,,0.00,0,Wunderground v.1.15,2013-01-11 11:35:00,
2013-01-11 05:36:00,35.5,35.0,29.59,SSE,148,5.0,7.0,98,0.00,,,0.00,0,Wunderground v.1.15,2013-01-11 11:36:00,
2013-01-11 05:37:00,35.5,35.0,29.60,SSE,150,6.0,7.0,98,0.00,,,0.00,0,Wunderground v.1.15,2013-01-11 11:37:00,
2013-01-11 05:38:00,35.5,35.0,29.60,SSE,154,5.0,7.0,98,0.00,,,0.00,0,Wunderground v.1.15,2013-01-11 11:38:00,
2013-01-11 05:42:00,35.6,35.1,29.60,SSE,159,4.0,6.0,98,0.00,,,0.00,0,Wunderground v.1.15,2013-01-11 11:42:00,
2013-01-11 05:43:00,35.6,35.1,29.60,SSE,161,5.0,6.0,98,0.00,,,0.00,0,Wunderground v.1.15,2013-01-11 11:43:00,
2013-01-11 05:44:00,35.7,35.2,29.60,SSE,157,4.0,6.0,98,0.00,,,0.00,0,Wunderground v.1.15,2013-01-11 11:44:00,
2013-01-11 05:48:00,35.9,35.4,29.60,SSE,158,4.0,6.0,98,0.00,,,0.00,0,Wunderground v.1.15,2013-01-11 11:48:00,
2013-01-11 05:50:00,36.0,35.5,29.60,SSE,159,4.0,4.0,98,0.00,,,0.00,0,Wunderground v.1.15,2013-01-11 11:50:00,
2013-01-11 05:52:00,36.0,35.5,29.60,SSE,158,5.0,5.0,98,0.00,,,0.00,0,Wunderground v.1.15,2013-01-11 11:52:00,
2013-01-11 05:54:00,36.1,35.6,29.60,SSE,156,5.0,6.0,98,0.00,,,0.00,0,Wunderground v.1.15,2013-01-11 11:54:00,
2013-01-11 05:55:00,36.1,35.6,29.60,SSE,161,5.0,6.0,98,0.00,,,0.00,0,Wunderground v.1.15,2013-01-11 11:55:00,
2013-01-11 05:56:00,36.1,35.6,29.61,SSE,153,7.0,7.0,98,0.00,,,0.00,0,Wunderground v.1.15,2013-01-11 11:56:00,
2013-01-11 05:58:00,36.1,35.6,29.61,SSE,155,5.0,7.0,98,0.00,,,0.00,0,Wunderground v.1.15,2013-01-11 11:58:00,
2013-01-11 06:01:00,36.2,35.7,29.61,SSE,161,5.0,6.0,98,0.00,,,0.00,0,Wunderground v.1.15,2013-01-11 12:01:00,
2013-01-11 06:04:00,36.2,35.7,29.61,SSE,153,5.0,6.0,98,0.00,,,0.00,0,Wunderground v.1.15,2013-01-11 12:04:00,
2013-01-11 06:06:00,36.3,35.8,29.61,SSE,156,6.0,8.0,98,0.00,,,0.00,0,Wunderground v.1.15,2013-01-11 12:06:00,
2013-01-11 06:08:00,36.3,35.8,29.61,SSE,159,4.0,8.0,98,0.00,,,0.00,0,Wunderground v.1.15,2013-01-11 12:08:00,
2013-01-11 06:11:00,36.3,35.8,29.60,SSE,160,4.0,5.0,98,0.00,,,0.00,0,Wunderground v.1.15,2013-01-11 12:11:00,
2013-01-11 06:12:00,36.3,35.8,29.61,SSE,158,4.0,6.0,98,0.00,,,0.00,0,Wunderground v.1.15,2013-01-11 12:12:00,
2013-01-11 06:13:00,36.3,35.8,29.61,SSE,161,4.0,6.0,98,0.00,,,0.00,0,Wunderground v.1.15,2013-01-11 12:13:00,
2013-01-11 06:16:00,36.2,35.7,29.61,SSE,155,4.0,6.0,98,0.00,,,0.00,0,Wunderground v.1.15,2013-01-11 12:16:00,
2013-01-11 06:18:00,36.3,35.8,29.60,SSE,156,7.0,7.0,98,0.00,,,0.00,0,Wunderground v.1.15,2013-01-11 12:18:00,
2013-01-11 06:19:00,36.3,35.8,29.60,SSE,161,4.0,7.0,98,0.00,,,0.00,0,Wunderground v.1.15,2013-01-11 12:19:00,
2013-01-11 06:20:00,36.3,35.8,29.61,SSE,159,6.0,6.0,98,0.00,,,0.00,0,Wunderground v.1.15,2013-01-11 12:20:00,
2013-01-11 06:22:00,36.4,35.9,29.61,SSE,153,6.0,6.0,98,0.00,,,0.00,0,Wunderground v.1.15,2013-01-11 12:22:00,
2013-01-11 06:24:00,36.4,35.9,29.61,SSE,156,7.0,8.0,98,0.00,,,0.00,0,Wunderground v.1.15,2013-01-11 12:24:00,
2013-01-11 06:28:00,36.5,36.0,29.60,SSE,157,7.0,9.0,98,0.00,,,0.00,0,Wunderground v.1.15,2013-01-11 12:28:00,
2013-01-11 06:30:00,36.5,36.0,29.61,SSE,165,7.0,9.0,98,0.00,,,0.00,0,Wunderground v.1.15,2013-01-11 12:30:00,
2013-01-11 06:33:00,36.6,36.1,29.61,SSE,159,6.0,8.0,98,0.00,,,0.00,0,Wunderground v.1.15,2013-01-11 12:33:00,
2013-01-11 06:34:00,36.6,36.1,29.61,SSE,160,7.0,8.0,98,0.00,,,0.00,0,Wunderground v.1.15,2013-01-11 12:34:00,
2013-01-11 06:36:00,36.6,36.1,29.61,South,169,7.0,8.0,98,0.00,,,0.00,0,Wunderground v.1.15,2013-01-11 12:36:00,
2013-01-11 06:38:00,36.6,36.1,29.61,SSE,162,5.0,8.0,98,0.00,,,0.00,0,Wunderground v.1.15,2013-01-11 12:38:00,
2013-01-11 06:41:00,36.5,36.0,29.61,South,171,7.0,9.0,98,0.00,,,0.00,0,Wunderground v.1.15,2013-01-11 12:41:00,
2013-01-11 06:43:00,36.5,36.0,29.61,SSE,166,6.0,9.0,98,0.00,,,0.00,0,Wunderground v.1.15,2013-01-11 12:43:00,
2013-01-11 06:44:00,36.5,36.0,29.61,SSE,165,6.0,9.0,98,0.00,,,0.00,0,Wunderground v.1.15,2013-01-11 12:44:00,
2013-01-11 06:47:00,36.6,36.1,29.61,SSE,166,7.0,9.0,98,0.00,,,0.00,0,Wunderground v.1.15,2013-01-11 12:47:00,
2013-01-11 06:49:00,36.6,36.1,29.61,SSE,154,8.0,9.0,98,0.00,,,0.00,0,Wunderground v.1.15,2013-01-11 12:49:00,
2013-01-11 06:52:00,36.6,36.1,29.60,SSE,162,5.0,7.0,98,0.00,,,0.00,0,Wunderground v.1.15,2013-01-11 12:52:00,
2013-01-11 06:53:00,36.6,36.1,29.60,SSE,161,5.0,8.0,98,0.00,,,0.00,0,Wunderground v.1.15,2013-01-11 12:53:00,
2013-01-11 06:54:00,36.7,36.2,29.60,SSE,163,4.0,8.0,98,0.00,,,0.00,0,Wunderground v.1.15,2013-01-11 12:54:00,
2013-01-11 06:55:00,36.7,36.2,29.60,SSE,158,8.0,8.0,98,0.00,,,0.00,0,Wunderground v.1.15,2013-01-11 12:55:00,
2013-01-11 06:57:00,36.8,36.3,29.60,SSE,159,5.0,9.0,98,0.00,,,0.00,0,Wunderground v.1.15,2013-01-11 12:57:00,
2013-01-11 06:58:00,36.9,36.4,29.60,SSE,159,7.0,9.0,98,0.00,,,0.00,0,Wunderground v.1.15,2013-01-11 12:58:00,
2013-01-11 07:00:00,37.0,36.5,29.60,SE,142,8.0,8.0,98,0.00,,,0.00,0,Wunderground v.1.15,2013-01-11 13:00:00,
2013-01-11 07:01:00,37.0,36.5,29.60,SSE,151,5.0,8.0,98,0.00,,,0.00,0,Wunderground v.1.15,2013-01-11 13:01:00,
2013-01-11 07:03:00,37.1,36.6,29.60,SSE,154,6.0,8.0,98,0.00,,,0.00,0,Wunderground v.1.15,2013-01-11 13:03:00,
2013-01-11 07:05:00,37.0,36.5,29.59,SE,146,5.0,8.0,98,0.00,,,0.00,0,Wunderground v.1.15,2013-01-11 13:05:00,
2013-01-11 07:09:00,36.7,36.2,29.60,SE,146,5.0,8.0,98,0.00,,,0.00,0,Wunderground v.1.15,2013-01-11 13:09:00,
2013-01-11 07:10:00,36.6,36.1,29.60,SE,142,4.0,6.0,98,0.00,,,0.00,0,Wunderground v.1.15,2013-01-11 13:10:00,
2013-01-11 07:11:00,36.6,36.1,29.60,SE,145,4.0,6.0,98,0.00,,,0.00,0,Wunderground v.1.15,2013-01-11 13:11:00,
2013-01-11 07:14:00,36.6,36.1,29.60,SSE,153,4.0,7.0,98,0.00,,,0.00,0,Wunderground v.1.15,2013-01-11 13:14:00,
2013-01-11 07:16:00,36.7,36.2,29.60,SSE,147,6.0,7.0,98,0.00,,,0.00,0,Wunderground v.1.15,2013-01-11 13:16:00,
2013-01-11 07:17:00,36.9,36.4,29.60,SSE,154,4.0,7.0,98,0.00,,,0.00,0,Wunderground v.1.15,2013-01-11 13:17:00,
2013-01-11 07:18:00,36.9,36.4,29.60,SSE,156,6.0,7.0,98,0.00,,,0.00,0,Wunderground v.1.15,2013-01-11 13:18:00,
2013-01-11 07:20:00,37.0,36.5,29.60,SSE,167,5.0,5.0,98,0.00,,,0.00,0,Wunderground v.1.15,2013-01-11 13:20:00,
2013-01-11 07:22:00,37.1,36.6,29.60,SSE,151,5.0,7.0,98,0.00,,,0.00,0,Wunderground v.1.15,2013-01-11 13:22:00,
2013-01-11 07:25:00,37.1,36.6,29.60,SSE,159,6.0,7.0,98,0.00,,,0.00,0,Wunderground v.1.15,2013-01-11 13:25:00,
2013-01-11 07:26:00,37.2,36.7,29.60,SSE,155,3.0,7.0,98,0.00,,,0.00,0,Wunderground v.1.15,2013-01-11 13:26:00,
2013-01-11 07:28:00,37.2,36.7,29.60,SSE,160,5.0,7.0,98,0.00,,,0.00,0,Wunderground v.1.15,2013-01-11 13:28:00,
2013-01-11 07:29:00,37.2,36.7,29.59,SSE,163,4.0,7.0,98,0.00,,,0.00,0,Wunderground v.1.15,2013-01-11 13:29:00,
2013-01-11 07:31:00,37.3,36.8,29.60,SE,142,5.0,7.0,98,0.00,,,0.00,0,Wunderground v.1.15,2013-01-11 13:31:00,
2013-01-11 07:33:00,37.3,36.8,29.59,SE,140,5.0,7.0,98,0.00,,,0.00,0,Wunderground v.1.15,2013-01-11 13:33:00,
2013-01-11 07:34:00,37.2,36.7,29.59,SSE,148,5.0,7.0,98,0.00,,,0.00,0,Wunderground v.1.15,2013-01-11 13:34:00,
2013-01-11 07:38:00,37.1,36.6,29.59,SE,143,5.0,7.0,98,0.00,,,0.00,0,Wunderground v.1.15,2013-01-11 13:38:00,
2013-01-11 07:39:00,37.1,36.6,29.59,SSE,148,6.0,7.0,98,0.00,,,0.00,0,Wunderground v.1.15,2013-01-11 13:39:00,
2013-01-11 07:43:00,36.8,36.3,29.59,SSE,152,4.0,6.0,98,0.00,,,0.00,0,Wunderground v.1.15,2013-01-11 13:43:00,
2013-01-11 07:44:00,36.8,36.3,29.60,SSE,153,4.0,6.0,98,0.00,,,0.00,0,Wunderground v.1.15,2013-01-11 13:44:00,
2013-01-11 07:45:00,36.8,36.3,29.60,SE,146,4.0,6.0,98,0.00,,,0.00,0,Wunderground v.1.15,2013-01-11 13:45:00,
2013-01-11 07:48:00,36.9,36.4,29.60,SSE,158,3.0,6.0,98,0.00,,,0.00,0,Wunderground v.1.15,2013-01-11 13:48:00,
2013-01-11 07:49:00,36.9,36.4,29.60,SSE,158,5.0,6.0,98,0.00,,,0.00,0,Wunderground v.1.15,2013-01-11 13:49:00,
2013-01-11 07:50:00,37.0,36.5,29.60,SSE,162,4.0,5.0,98,0.00,,,0.00,0,Wunderground v.1.15,2013-01-11 13:50:00,
2013-01-11 07:54:00,36.9,36.4,29.60,SSE,165,2.0,5.0,98,0.00,,,0.00,5,Wunderground v.1.15,2013-01-11 13:54:00,
2013-01-11 07:55:00,36.8,36.3,29.60,SSE,168,5.0,5.0,98,0.00,,,0.00,5,Wunderground v.1.15,2013-01-11 13:55:00,
2013-01-11 07:56:00,36.8,36.3,29.60,SSE,168,5.0,5.0,98,0.00,,,0.00,7,Wunderground v.1.15,2013-01-11 13:56:00,
2013-01-11 07:59:00,37.1,36.6,29.60,SSE,163,3.0,6.0,98,0.00,,,0.00,7,Wunderground v.1.15,2013-01-11 13:59:00,
2013-01-11 08:02:00,37.3,36.8,29.59,South,170,6.0,7.0,98,0.00,,,0.00,11,Wunderground v.1.15,2013-01-11 14:02:00,
2013-01-11 08:05:00,38.0,37.5,29.59,SSE,161,4.0,10.0,98,0.00,,,0.00,11,Wunderground v.1.15,2013-01-11 14:05:00,
2013-01-11 08:07:00,38.3,37.8,29.59,SSE,155,5.0,10.0,98,0.00,,,0.00,12,Wunderground v.1.15,2013-01-11 14:07:00,
2013-01-11 08:08:00,38.4,37.9,29.59,SSE,149,6.0,10.0,98,0.00,,,0.00,12,Wunderground v.1.15,2013-01-11 14:08:00,
2013-01-11 08:10:00,38.3,37.8,29.59,SSE,150,7.0,7.0,98,0.00,,,0.00,14,Wunderground v.1.15,2013-01-11 14:10:00,
2013-01-11 08:11:00,38.3,37.8,29.59,SE,143,6.0,7.0,98,0.00,,,0.00,16,Wunderground v.1.15,2013-01-11 14:11:00,
2013-01-11 08:13:00,38.1,37.6,29.59,SE,143,5.0,7.0,98,0.00,,,0.00,18,Wunderground v.1.15,2013-01-11 14:13:00,
2013-01-11 08:14:00,37.9,37.4,29.59,SE,142,7.0,7.0,98,0.00,,,0.00,18,Wunderground v.1.15,2013-01-11 14:14:00,
2013-01-11 08:17:00,37.7,37.2,29.59,SE,145,4.0,7.0,98,0.00,,,0.00,16,Wunderground v.1.15,2013-01-11 14:17:00,
2013-01-11 08:18:00,37.6,37.1,29.59,SSE,155,6.0,7.0,98,0.00,,,0.00,16,Wunderground v.1.15,2013-01-11 14:18:00,
2013-01-11 08:19:00,37.6,37.1,29.59,SSE,150,6.0,7.0,98,0.00,,,0.00,18,Wunderground v.1.15,2013-01-11 14:19:00,
2013-01-11 08:20:00,37.6,37.1,29.59,SSE,153,5.0,6.0,98,0.00,,,0.00,18,Wunderground v.1.15,2013-01-11 14:20:00,
2013-01-11 08:22:00,37.7,37.2,29.59,SSE,158,5.0,6.0,98,0.00,,,0.00,18,Wunderground v.1.15,2013-01-11 14:22:00,
2013-01-11 08:25:00,37.7,37.2,29.58,ESE,121,3.0,6.0,98,0.00,,,0.00,23,Wunderground v.1.15,2013-01-11 14:25:00,
2013-01-11 08:27:00,37.9,37.4,29.58,SE,134,6.0,7.0,98,0.00,,,0.00,25,Wunderground v.1.15,2013-01-11 14:27:00,
2013-01-11 08:28:00,37.9,37.4,29.58,SE,130,4.0,7.0,98,0.00,,,0.00,30,Wunderground v.1.15,2013-01-11 14:28:00,
2013-01-11 08:31:00,38.7,38.2,29.57,ESE,117,9.0,9.0,98,0.00,,,0.00,35,Wunderground v.1.15,2013-01-11 14:31:00,
2013-01-11 08:32:00,39.1,38.6,29.57,SE,136,5.0,9.0,98,0.00,,,0.00,35,Wunderground v.1.15,2013-01-11 14:32:00,
2013-01-11 08:34:00,39.3,38.8,29.57,SE,146,8.0,9.0,98,0.00,,,0.00,37,Wunderground v.1.15,2013-01-11 14:34:00,
2013-01-11 08:37:00,39.8,39.5,29.56,SE,138,7.0,10.0,99,0.00,,,0.00,35,Wunderground v.1.15,2013-01-11 14:37:00,
2013-01-11 08:38:00,39.8,39.5,29.56,SE,125,8.0,10.0,99,0.00,,,0.00,35,Wunderground v.1.15,2013-01-11 14:38:00,
2013-01-11 08:39:00,39.9,39.6,29.56,SE,132,8.0,10.0,99,0.00,,,0.00,33,Wunderground v.1.15,2013-01-11 14:39:00,
2013-01-11 08:42:00,40.0,39.5,29.57,SE,132,8.0,11.0,98,0.00,,,0.00,44,Wunderground v.1.15,2013-01-11 14:42:00,
2013-01-11 08:43:00,40.0,39.5,29.57,SE,136,11.0,11.0,98,0.00,,,0.00,44,Wunderground v.1.15,2013-01-11 14:43:00,
2013-01-11 08:44:00,39.9,39.6,29.57,SSE,153,9.0,11.0,99,0.00,,,0.00,44,Wunderground v.1.15,2013-01-11 14:44:00,
2013-01-11 08:47:00,39.6,39.3,29.57,SE,144,8.0,11.0,99,0.00,,,0.00,46,Wunderground v.1.15,2013-01-11 14:47:00,
2013-01-11 08:49:00,39.6,39.1,29.56,SE,133,9.0,11.0,98,0.00,,,0.00,47,Wunderground v.1.15,2013-01-11 14:49:00,
2013-01-11 08:50:00,39.6,39.1,29.57,SE,142,10.0,10.0,98,0.00,,,0.00,47,Wunderground v.1.15,2013-01-11 14:50:00,
2013-01-11 08:54:00,39.5,39.0,29.57,SE,136,7.0,10.0,98,0.00,,,0.00,54,Wunderground v.1.15,2013-01-11 14:54:00,
2013-01-11 08:55:00,39.5,39.0,29.57,SSE,148,7.0,10.0,98,0.00,,,0.00,54,Wunderground v.1.15,2013-01-11 14:55:00,
2013-01-11 08:56:00,39.5,39.0,29.57,SE,141,7.0,10.0,98,0.00,,,0.00,54,Wunderground v.1.15,2013-01-11 14:56:00,
2013-01-11 08:59:00,39.3,39.0,29.57,SSE,148,8.0,10.0,99,0.00,,,0.00,53,Wunderground v.1.15,2013-01-11 14:59:00,
2013-01-11 09:00:00,39.3,39.0,29.57,SE,145,7.0,8.0,99,0.00,,,0.00,54,Wunderground v.1.15,2013-01-11 15:00:00,
2013-01-11 09:01:00,39.3,38.8,29.57,SE,146,8.0,9.0,98,0.00,,,0.00,54,Wunderground v.1.15,2013-01-11 15:01:00,
2013-01-11 09:04:00,39.0,38.5,29.57,SSE,157,9.0,9.0,98,0.00,,,0.00,53,Wunderground v.1.15,2013-01-11 15:04:00,
2013-01-11 09:05:00,39.1,38.6,29.57,SSE,156,6.0,9.0,98,0.00,,,0.00,53,Wunderground v.1.15,2013-01-11 15:05:00,
2013-01-11 09:07:00,39.3,38.8,29.57,SSE,150,9.0,11.0,98,0.00,,,0.00,53,Wunderground v.1.15,2013-01-11 15:07:00,
2013-01-11 09:09:00,39.7,39.2,29.57,SSE,163,10.0,11.0,98,0.00,,,0.00,54,Wunderground v.1.15,2013-01-11 15:09:00,
2013-01-11 09:11:00,39.8,39.5,29.57,SSE,161,7.0,8.0,99,0.00,,,0.00,54,Wunderground v.1.15,2013-01-11 15:11:00,
2013-01-11 09:13:00,39.9,39.6,29.57,SSE,155,6.0,9.0,99,0.00,,,0.00,54,Wunderground v.1.15,2013-01-11 15:13:00,
2013-01-11 09:15:00,39.9,39.6,29.57,SSE,157,9.0,10.0,99,0.00,,,0.00,58,Wunderground v.1.15,2013-01-11 15:15:00,
2013-01-11 09:17:00,40.0,39.5,29.57,SSE,151,8.0,10.0,98,0.00,,,0.00,62,Wunderground v.1.15,2013-01-11 15:17:00,
2013-01-11 09:18:00,40.1,39.6,29.57,SSE,161,6.0,10.0,98,0.00,,,0.00,60,Wunderground v.1.15,2013-01-11 15:18:00,
2013-01-11 09:19:00,40.1,39.6,29.57,SE,144,6.0,10.0,98,0.00,,,0.00,60,Wunderground v.1.15,2013-01-11 15:19:00,
2013-01-11 09:21:00,40.2,39.7,29.56,SSE,149,8.0,9.0,98,0.00,,,0.00,60,Wunderground v.1.15,2013-01-11 15:21:00,
2013-01-11 09:22:00,40.4,40.1,29.56,SE,143,9.0,10.0,99,0.00,,,0.00,63,Wunderground v.1.15,2013-01-11 15:22:00,
2013-01-11 09:24:00,40.3,40.0,29.56,SSE,153,8.0,10.0,99,0.00,,,0.00,70,Wunderground v.1.15,2013-01-11 15:24:00,
2013-01-11 09:26:00,40.1,39.6,29.56,SSE,153,8.0,10.0,98,0.00,,,0.00,69,Wunderground v.1.15,2013-01-11 15:26:00,
2013-01-11 09:29:00,40.0,39.5,29.56,SE,146,7.0,10.0,98,0.00,,,0.00,69,Wunderground v.1.15,2013-01-11 15:29:00,
2013-01-11 09:30:00,39.9,39.6,29.56,SSE,148,8.0,8.0,99,0.00,,,0.00,65,Wunderground v.1.15,2013-01-11 15:30:00,
2013-01-11 09:31:00,39.9,39.6,29.56,SSE,152,7.0,8.0,99,0.00,,,0.00,62,Wunderground v.1.15,2013-01-11 15:31:00,
2013-01-11 09:35:00,40.1,39.6,29.56,SSE,152,7.0,8.0,98,0.00,,,0.00,72,Wunderground v.1.15,2013-01-11 15:35:00,
2013-01-11 09:37:00,40.4,39.9,29.56,SSE,159,7.0,8.0,98,0.00,,,0.00,65,Wunderground v.1.15,2013-01-11 15:37:00,
2013-01-11 09:38:00,40.6,40.3,29.56,SSE,157,5.0,8.0,99,0.00,,,0.00,65,Wunderground v.1.15,2013-01-11 15:38:00,
2013-01-11 09:42:00,40.7,40.2,29.57,South,173,5.0,9.0,98,0.00,,,0.00,74,Wunderground v.1.15,2013-01-11 15:42:00,
2013-01-11 09:43:00,40.7,40.2,29.56,SSE,157,7.0,9.0,98,0.00,,,0.00,67,Wunderground v.1.15,2013-01-11 15:43:00,
2013-01-11 09:44:00,40.6,40.1,29.56,SSE,158,8.0,9.0,98,0.00,,,0.00,79,Wunderground v.1.15,2013-01-11 15:44:00,
2013-01-11 09:47:00,41.1,40.8,29.56,SE,146,9.0,12.0,99,0.00,,,0.00,100,Wunderground v.1.15,2013-01-11 15:47:00,
2013-01-11 09:48:00,41.4,40.9,29.56,SSE,153,8.0,12.0,98,0.00,,,0.00,98,Wunderground v.1.15,2013-01-11 15:48:00,
2013-01-11 09:49:00,41.4,40.9,29.56,SSE,151,5.0,12.0,98,0.00,,,0.00,98,Wunderground v.1.15,2013-01-11 15:49:00,
2013-01-11 09:50:00,41.4,40.9,29.56,SSE,154,7.0,12.0,98,0.00,,,0.00,98,Wunderground v.1.15,2013-01-11 15:50:00,
2013-01-11 09:53:00,41.1,40.8,29.56,SE,146,9.0,11.0,99,0.00,,,0.00,105,Wunderground v.1.15,2013-01-11 15:53:00,
2013-01-11 09:54:00,41.1,40.8,29.56,SSE,153,8.0,11.0,99,0.00,,,0.00,105,Wunderground v.1.15,2013-01-11 15:54:00,
2013-01-11 09:55:00,41.2,40.9,29.56,SSE,157,6.0,11.0,99,0.00,,,0.00,105,Wunderground v.1.15,2013-01-11 15:55:00,
2013-01-11 09:57:00,41.2,40.9,29.56,SSE,163,6.0,11.0,99,0.00,,,0.00,105,Wunderground v.1.15,2013-01-11 15:57:00,
2013-01-11 09:58:00,41.3,40.8,29.56,SSE,159,9.0,11.0,98,0.00,,,0.00,114,Wunderground v.1.15,2013-01-11 15:58:00,
2013-01-11 10:00:00,41.6,41.3,29.56,SSE,158,6.0,7.0,99,0.00,,,0.00,116,Wunderground v.1.15,2013-01-11 16:00:00,
2013-01-11 10:02:00,41.5,41.2,29.56,SSE,167,5.0,7.0,99,0.00,,,0.00,125,Wunderground v.1.15,2013-01-11 16:02:00,
2013-01-11 10:03:00,41.4,41.1,29.56,South,169,5.0,7.0,99,0.00,,,0.00,134,Wunderground v.1.15,2013-01-11 16:03:00,
2013-01-11 10:06:00,41.3,40.8,29.55,SSE,165,6.0,9.0,98,0.00,,,0.00,123,Wunderground v.1.15,2013-01-11 16:06:00,
2013-01-11 10:07:00,41.1,40.8,29.55,SSE,159,7.0,9.0,99,0.00,,,0.00,123,Wunderground v.1.15,2013-01-11 16:07:00,
2013-01-11 10:08:00,41.3,41.0,29.55,South,171,7.0,9.0,99,0.00,,,0.00,114,Wunderground v.1.15,2013-01-11 16:08:00,
2013-01-11 10:11:00,41.3,40.8,29.55,SSE,166,7.0,7.0,98,0.00,,,0.00,109,Wunderground v.1.15,2013-01-11 16:11:00,
2013-01-11 10:13:00,41.4,40.9,29.55,SSE,167,7.0,11.0,98,0.00,,,0.00,109,Wunderground v.1.15,2013-01-11 16:13:00,
2013-01-11 10:15:00,41.5,41.2,29.55,SSE,162,6.0,11.0,99,0.00,,,0.00,109,Wunderground v.1.15,2013-01-11 16:15:00,
2013-01-11 10:18:00,41.7,41.4,29.55,SSE,167,7.0,11.0,99,0.00,,,0.00,88,Wunderground v.1.15,2013-01-11 16:18:00,
2013-01-11 10:19:00,41.7,41.4,29.55,SSE,150,9.0,11.0,99,0.00,,,0.00,88,Wunderground v.1.15,2013-01-11 16:19:00,
2013-01-11 10:20:00,41.8,41.5,29.55,SSE,158,10.0,10.0,99,0.00,,,0.00,79,Wunderground v.1.15,2013-01-11 16:20:00,
2013-01-11 10:21:00,41.9,41.6,29.55,SSE,157,8.0,10.0,99,0.00,,,0.00,79,Wunderground v.1.15,2013-01-11 16:21:00,
2013-01-11 10:25:00,42.0,41.7,29.55,South,169,8.0,10.0,99,0.00,,,0.00,97,Wunderground v.1.15,2013-01-11 16:25:00,
2013-01-11 10:26:00,42.0,41.7,29.55,SSE,158,11.0,11.0,99,0.00,,,0.00,120,Wunderground v.1.15,2013-01-11 16:26:00,
2013-01-11 10:28:00,42.0,41.7,29.55,SSE,157,8.0,14.0,99,0.00,,,0.00,107,Wunderground v.1.15,2013-01-11 16:28:00,
2013-01-11 10:31:00,42.1,41.8,29.55,SSE,160,8.0,11.0,99,0.00,,,0.00,97,Wunderground v.1.15,2013-01-11 16:31:00,
2013-01-11 10:32:00,42.1,41.8,29.55,SSE,168,8.0,11.0,99,0.00,,,0.00,97,Wunderground v.1.15,2013-01-11 16:32:00,
2013-01-11 10:33:00,42.0,41.7,29.54,SSE,157,9.0,11.0,99,0.00,,,0.00,95,Wunderground v.1.15,2013-01-11 16:33:00,
2013-01-11 10:37:00,42.4,42.1,29.54,SSE,157,8.0,14.0,99,0.00,,,0.00,118,Wunderground v.1.15,2013-01-11 16:37:00,
2013-01-11 10:38:00,42.4,42.1,29.54,SSE,159,10.0,14.0,99,0.00,,,0.00,118,Wunderground v.1.15,2013-01-11 16:38:00,
2013-01-11 10:39:00,42.5,42.2,29.53,SSE,159,8.0,14.0,99,0.00,,,0.00,95,Wunderground v.1.15,2013-01-11 16:39:00,
2013-01-11 10:43:00,42.5,42.2,29.54,SSE,163,5.0,10.0,99,0.00,,,0.00,90,Wunderground v.1.15,2013-01-11 16:43:00,
2013-01-11 10:44:00,42.0,41.7,29.55,SSE,163,6.0,10.0,99,0.00,,,0.00,81,Wunderground v.1.15,2013-01-11 16:44:00,
2013-01-11 10:45:00,41.9,41.6,29.54,SSE,166,7.0,10.0,99,0.00,,,0.00,86,Wunderground v.1.15,2013-01-11 16:45:00,
2013-01-11 10:48:00,41.8,41.5,29.55,South,171,6.0,10.0,99,0.00,,,0.00,86,Wunderground v.1.15,2013-01-11 16:48:00,
2013-01-11 10:49:00,41.6,41.3,29.55,South,169,6.0,10.0,99,0.00,,,0.00,76,Wunderground v.1.15,2013-01-11 16:49:00,
2013-01-11 10:50:00,41.6,41.3,29.55,SSE,166,6.0,7.0,99,0.00,,,0.00,72,Wunderground v.1.15,2013-01-11 16:50:00,
2013-01-11 10:53:00,42.0,41.7,29.55,SSE,167,6.0,8.0,99,0.00,,,0.00,93,Wunderground v.1.15,2013-01-11 16:53:00,
2013-01-11 10:56:00,41.8,41.5,29.55,SSE,153,6.0,8.0,99,0.00,,,0.00,97,Wunderground v.1.15,2013-01-11 16:56:00,
2013-01-11 10:58:00,42.0,41.7,29.55,SSE,150,7.0,8.0,99,0.00,,,0.00,109,Wunderground v.1.15,2013-01-11 16:58:00,
2013-01-11 10:59:00,42.1,41.8,29.54,SSE,149,6.0,8.0,99,0.00,,,0.00,135,Wunderground v.1.15,2013-01-11 16:59:00,
2013-01-11 11:00:00,42.2,41.9,29.55,SSE,156,9.0,9.0,99,0.00,,,0.00,135,Wunderground v.1.15,2013-01-11 17:00:00,
2013-01-11 11:01:00,42.4,42.1,29.55,SSE,157,6.0,9.0,99,0.00,,,0.00,121,Wunderground v.1.15,2013-01-11 17:01:00,
2013-01-11 11:04:00,42.4,42.1,29.54,SSE,157,6.0,9.0,99,0.00,,,0.00,141,Wunderground v.1.15,2013-01-11 17:04:00,
2013-01-11 11:05:00,42.4,42.1,29.54,SSE,159,5.0,9.0,99,0.00,,,0.00,125,Wunderground v.1.15,2013-01-11 17:05:00,
2013-01-11 11:06:00,42.4,42.1,29.54,SSE,162,8.0,9.0,99,0.00,,,0.00,137,Wunderground v.1.15,2013-01-11 17:06:00,
2013-01-11 11:08:00,42.4,42.1,29.54,SSE,150,9.0,9.0,99,0.00,,,0.00,139,Wunderground v.1.15,2013-01-11 17:08:00,
2013-01-11 11:10:00,42.5,42.2,29.54,SSE,149,7.0,7.0,99,0.00,,,0.00,149,Wunderground v.1.15,2013-01-11 17:10:00,
2013-01-11 11:11:00,42.4,42.1,29.54,SE,140,8.0,8.0,99,0.00,,,0.00,151,Wunderground v.1.15,2013-01-11 17:11:00,
2013-01-11 11:14:00,42.4,42.1,29.53,SSE,155,5.0,9.0,99,0.00,,,0.00,149,Wunderground v.1.15,2013-01-11 17:14:00,
2013-01-11 11:16:00,42.4,42.1,29.53,SE,144,8.0,9.0,99,0.00,,,0.00,118,Wunderground v.1.15,2013-01-11 17:16:00,
2013-01-11 11:17:00,42.4,42.1,29.53,SSE,157,8.0,9.0,99,0.00,,,0.00,121,Wunderground v.1.15,2013-01-11 17:17:00,
2013-01-11 11:20:00,42.1,41.8,29.52,SE,146,6.0,7.0,99,0.00,,,0.00,163,Wunderground v.1.15,2013-01-11 17:20:00,
2013-01-11 11:21:00,42.0,41.7,29.52,SE,141,8.0,9.0,99,0.00,,,0.00,167,Wunderground v.1.15,2013-01-11 17:21:00,
2013-01-11 11:23:00,42.0,41.7,29.52,SE,145,7.0,9.0,99,0.00,,,0.00,178,Wunderground v.1.15,2013-01-11 17:23:00,
2013-01-11 11:26:00,41.9,41.4,29.52,SSE,155,6.0,11.0,98,0.00,,,0.00,211,Wunderground v.1.15,2013-01-11 17:26:00,
2013-01-11 11:27:00,42.0,41.7,29.51,SSE,156,9.0,11.0,99,0.00,,,0.00,211,Wunderground v.1.15,2013-01-11 17:27:00,
2013-01-11 11:28:00,42.3,42.0,29.51,SE,139,7.0,11.0,99,0.00,,,0.00,213,Wunderground v.1.15,2013-01-11 17:28:00,
2013-01-11 11:31:00,42.7,42.4,29.51,SSE,153,9.0,9.0,99,0.00,,,0.00,246,Wunderground v.1.15,2013-01-11 17:31:00,
2013-01-11 11:33:00,43.1,42.8,29.51,SSE,150,7.0,9.0,99,0.00,,,0.00,246,Wunderground v.1.15,2013-01-11 17:33:00,
2013-01-11 11:37:00,43.0,42.7,29.50,SSE,161,11.0,11.0,99,0.00,,,0.00,202,Wunderground v.1.15,2013-01-11 17:37:00,
2013-01-11 11:38:00,43.0,42.7,29.50,SSE,153,11.0,12.0,99,0.00,,,0.00,206,Wunderground v.1.15,2013-01-11 17:38:00,
2013-01-11 11:39:00,43.0,42.7,29.50,SSE,152,8.0,12.0,99,0.00,,,0.00,197,Wunderground v.1.15,2013-01-11 17:39:00,
2013-01-11 11:43:00,42.8,42.5,29.50,SE,146,9.0,11.0,99,0.00,,,0.00,183,Wunderground v.1.15,2013-01-11 17:43:00,
2013-01-11 11:44:00,42.8,42.5,29.50,SE,143,10.0,11.0,99,0.00,,,0.00,183,Wunderground v.1.15,2013-01-11 17:44:00,
2013-01-11 11:45:00,43.0,42.7,29.49,SSE,153,9.0,11.0,99,0.00,,,0.00,172,Wunderground v.1.15,2013-01-11 17:45:00,
2013-01-11 11:49:00,43.2,42.9,29.49,SE,138,8.0,12.0,99,0.00,,,0.00,178,Wunderground v.1.15,2013-01-11 17:49:00,
2013-01-11 11:52:00,43.2,42.9,29.48,SE,138,8.0,10.0,99,0.00,,,0.00,176,Wunderground v.1.15,2013-01-11 17:52:00,
2013-01-11 11:54:00,43.0,42.7,29.48,SE,144,8.0,12.0,99,0.00,,,0.00,206,Wunderground v.1.15,2013-01-11 17:54:00,
2013-01-11 11:57:00,42.9,42.6,29.47,SE,142,7.0,12.0,99,0.00,,,0.00,220,Wunderground v.1.15,2013-01-11 17:57:00,
2013-01-11 12:00:00,43.0,42.7,29.47,SE,146,10.0,10.0,99,0.00,,,0.00,211,Wunderground v.1.15,2013-01-11 18:00:00,
2013-01-11 12:03:00,43.1,42.8,29.46,SSE,147,11.0,13.0,99,0.00,,,0.00,197,Wunderground v.1.15,2013-01-11 18:03:00,
2013-01-11 12:05:00,43.2,42.9,29.45,SSE,147,11.0,13.0,99,0.00,,,0.00,188,Wunderground v.1.15,2013-01-11 18:05:00,
2013-01-11 12:07:00,42.9,42.6,29.45,SSE,161,10.0,13.0,99,0.00,,,0.00,188,Wunderground v.1.15,2013-01-11 18:07:00,
2013-01-11 12:09:00,42.9,42.6,29.45,SE,142,10.0,13.0,99,0.00,,,0.00,190,Wunderground v.1.15,2013-01-11 18:09:00,
2013-01-11 12:11:00,43.1,42.8,29.45,SSE,148,11.0,12.0,99,0.00,,,0.00,188,Wunderground v.1.15,2013-01-11 18:11:00,
2013-01-11 12:13:00,43.1,42.8,29.45,SSE,161,10.0,12.0,99,0.00,,,0.00,174,Wunderground v.1.15,2013-01-11 18:13:00,
2013-01-11 12:15:00,43.2,42.9,29.45,SSE,152,10.0,12.0,99,0.00,,,0.00,172,Wunderground v.1.15,2013-01-11 18:15:00,
2013-01-11 12:16:00,43.4,43.1,29.45,SSE,165,11.0,13.0,99,0.00,,,0.00,174,Wunderground v.1.15,2013-01-11 18:16:00,
2013-01-11 12:18:00,43.8,43.5,29.45,SSE,152,12.0,15.0,99,0.00,,,0.00,151,Wunderground v.1.15,2013-01-11 18:18:00,
2013-01-11 12:21:00,43.8,43.5,29.45,SSE,167,9.0,11.0,99,0.00,,,0.00,142,Wunderground v.1.15,2013-01-11 18:21:00,
2013-01-11 12:22:00,43.8,43.5,29.45,SSE,154,8.0,11.0,99,0.00,,,0.00,155,Wunderground v.1.15,2013-01-11 18:22:00,
2013-01-11 12:23:00,43.6,43.3,29.45,SSE,167,4.0,11.0,99,0.00,,,0.00,135,Wunderground v.1.15,2013-01-11 18:23:00,
2013-01-11 12:24:00,43.5,43.2,29.45,SSE,160,8.0,11.0,99,0.00,,,0.00,130,Wunderground v.1.15,2013-01-11 18:24:00,
2013-01-11 12:27:00,43.6,43.3,29.45,SSE,159,7.0,12.0,99,0.00,,,0.00,123,Wunderground v.1.15,2013-01-11 18:27:00,
2013-01-11 12:28:00,43.7,43.4,29.45,SSE,152,8.0,12.0,99,0.00,,,0.00,125,Wunderground v.1.15,2013-01-11 18:28:00,
2013-01-11 12:29:00,43.7,43.4,29.45,SSE,162,8.0,12.0,99,0.00,,,0.00,113,Wunderground v.1.15,2013-01-11 18:29:00,
2013-01-11 12:33:00,43.4,43.1,29.45,South,173,7.0,9.0,99,0.00,,,0.00,111,Wunderground v.1.15,2013-01-11 18:33:00,
2013-01-11 12:34:00,43.3,43.0,29.45,South,169,10.0,13.0,99,0.00,,,0.00,105,Wunderground v.1.15,2013-01-11 18:34:00,
2013-01-11 12:38:00,43.4,43.1,29.45,SSE,160,5.0,13.0,99,0.00,,,0.00,105,Wunderground v.1.15,2013-01-11 18:38:00,
2013-01-11 12:39:00,43.2,42.9,29.45,SSE,166,11.0,13.0,99,0.00,,,0.00,102,Wunderground v.1.15,2013-01-11 18:39:00,
2013-01-11 12:41:00,43.3,43.0,29.45,South,173,6.0,8.0,99,0.00,,,0.00,105,Wunderground v.1.15,2013-01-11 18:41:00,
2013-01-11 12:43:00,43.1,42.8,29.45,South,184,6.0,8.0,99,0.00,,,0.00,113,Wunderground v.1.15,2013-01-11 18:43:00,
2013-01-11 12:45:00,42.9,42.4,29.45,SSE,167,7.0,8.0,98,0.00,,,0.00,104,Wunderground v.1.15,2013-01-11 18:45:00,
2013-01-11 12:47:00,43.0,42.5,29.45,South,169,6.0,10.0,98,0.00,,,0.00,91,Wunderground v.1.15,2013-01-11 18:47:00,
2013-01-11 12:49:00,42.9,42.4,29.45,South,169,6.0,10.0,98,0.00,,,0.00,91,Wunderground v.1.15,2013-01-11 18:49:00,
2013-01-11 12:50:00,42.9,42.4,29.45,South,175,6.0,7.0,98,0.00,,,0.00,91,Wunderground v.1.15,2013-01-11 18:50:00,
2013-01-11 12:54:00,42.9,42.4,29.44,SSE,161,6.0,10.0,98,0.00,,,0.00,88,Wunderground v.1.15,2013-01-11 18:54:00,
2013-01-11 12:55:00,42.8,42.3,29.44,SSE,163,5.0,10.0,98,0.00,,,0.00,84,Wunderground v.1.15,2013-01-11 18:55:00,
2013-01-11 12:56:00,42.7,42.2,29.45,South,170,5.0,10.0,98,0.00,,,0.00,102,Wunderground v.1.15,2013-01-11 18:56:00,
2013-01-11 13:00:00,42.5,42.0,29.45,SSE,166,5.0,6.0,98,0.00,,,0.00,97,Wunderground v.1.15,2013-01-11 19:00:00,
2013-01-11 13:01:00,42.5,42.0,29.45,SSE,161,4.0,6.0,98,0.00,,,0.00,98,Wunderground v.1.15,2013-01-11 19:01:00,
2013-01-11 13:05:00,42.7,42.2,29.46,SSE,166,5.0,8.0,98,0.00,,,0.00,79,Wunderground v.1.15,2013-01-11 19:05:00,
2013-01-11 13:06:00,42.7,42.2,29.45,South,170,5.0,8.0,98,0.00,,,0.00,83,Wunderground v.1.15,2013-01-11 19:06:00,
2013-01-11 13:08:00,42.5,42.0,29.45,SSE,165,5.0,8.0,98,0.00,,,0.00,91,Wunderground v.1.15,2013-01-11 19:08:00,
2013-01-11 13:11:00,42.4,41.9,29.45,SSE,168,4.0,6.0,98,0.00,,,0.00,88,Wunderground v.1.15,2013-01-11 19:11:00,
2013-01-11 13:12:00,42.4,41.9,29.45,South,169,5.0,6.0,98,0.00,,,0.00,84,Wunderground v.1.15,2013-01-11 19:12:00,
2013-01-11 13:13:00,42.4,41.9,29.45,South,169,4.0,6.0,98,0.00,,,0.00,90,Wunderground v.1.15,2013-01-11 19:13:00,
2013-01-11 13:16:00,42.2,41.7,29.45,SSE,161,5.0,6.0,98,0.00,,,0.00,74,Wunderground v.1.15,2013-01-11 19:16:00,
2013-01-11 13:17:00,42.1,41.6,29.45,SSE,159,5.0,6.0,98,0.00,,,0.00,74,Wunderground v.1.15,2013-01-11 19:17:00,
2013-01-11 13:18:00,42.1,41.6,29.44,SSE,155,6.0,6.0,98,0.00,,,0.00,70,Wunderground v.1.15,2013-01-11 19:18:00,
2013-01-11 13:21:00,42.4,41.9,29.44,SSE,159,6.0,7.0,98,0.00,,,0.00,83,Wunderground v.1.15,2013-01-11 19:21:00,
2013-01-11 13:22:00,42.4,41.9,29.44,SSE,165,6.0,7.0,98,0.00,,,0.00,86,Wunderground v.1.15,2013-01-11 19:22:00,
2013-01-11 13:24:00,42.5,42.0,29.44,SSE,167,6.0,7.0,98,0.00,,,0.00,93,Wunderground v.1.15,2013-01-11 19:24:00,
2013-01-11 13:26:00,42.4,41.9,29.44,South,169,6.0,7.0,98,0.00,,,0.00,114,Wunderground v.1.15,2013-01-11 19:26:00,
2013-01-11 13:29:00,42.9,42.4,29.43,SSE,159,6.0,11.0,98,0.00,,,0.00,120,Wunderground v.1.15,2013-01-11 19:29:00,
2013-01-11 13:32:00,43.3,42.8,29.44,SSE,166,6.0,10.0,98,0.00,,,0.00,111,Wunderground v.1.15,2013-01-11 19:32:00,
2013-01-11 13:34:00,43.2,42.7,29.44,SSE,166,6.0,10.0,98,0.00,,,0.00,118,Wunderground v.1.15,2013-01-11 19:34:00,
2013-01-11 13:35:00,43.2,42.7,29.44,SSE,166,6.0,10.0,98,0.00,,,0.00,116,Wunderground v.1.15,2013-01-11 19:35:00,
2013-01-11 13:37:00,43.1,42.6,29.44,SSE,167,7.0,11.0,98,0.00,,,0.00,116,Wunderground v.1.15,2013-01-11 19:37:00,
2013-01-11 13:40:00,43.1,42.6,29.43,SSE,159,6.0,8.0,98,0.00,,,0.00,128,Wunderground v.1.15,2013-01-11 19:40:00,
2013-01-11 13:41:00,43.1,42.6,29.43,South,172,6.0,8.0,98,0.00,,,0.00,132,Wunderground v.1.15,2013-01-11 19:41:00,
2013-01-11 13:42:00,43.1,42.6,29.43,SSE,165,7.0,8.0,98,0.00,,,0.00,132,Wunderground v.1.15,2013-01-11 19:42:00,
2013-01-11 13:43:00,43.1,42.6,29.43,South,171,7.0,9.0,98,0.00,,,0.00,134,Wunderground v.1.15,2013-01-11 19:43:00,
2013-01-11 13:47:00,43.6,43.1,29.43,SSE,164,5.0,11.0,98,0.00,,,0.00,135,Wunderground v.1.15,2013-01-11 19:47:00,
2013-01-11 13:48:00,43.6,43.1,29.43,SSE,159,8.0,11.0,98,0.00,,,0.00,135,Wunderground v.1.15,2013-01-11 19:48:00,
2013-01-11 13:53:00,44.0,43.5,29.43,South,169,8.0,9.0,98,0.00,,,0.00,146,Wunderground v.1.15,2013-01-11 19:53:00,
2013-01-11 13:58:00,43.7,42.9,29.44,South,171,5.0,9.0,97,0.00,,,0.00,125,Wunderground v.1.15,2013-01-11 19:58:00,
2013-01-11 13:59:00,43.7,42.9,29.43,South,169,3.0,9.0,97,0.00,,,0.00,125,Wunderground v.1.15,2013-01-11 19:59:00,
2013-01-11 14:04:00,43.3,42.5,29.43,SSE,165,4.0,6.0,97,0.00,,,0.00,104,Wunderground v.1.15,2013-01-11 20:04:00,
2013-01-11 14:05:00,43.2,42.4,29.43,South,169,7.0,7.0,97,0.00,,,0.00,98,Wunderground v.1.15,2013-01-11 20:05:00,
2013-01-11 14:09:00,43.1,42.3,29.43,South,173,5.0,7.0,97,0.00,,,0.00,93,Wunderground v.1.15,2013-01-11 20:09:00,
2013-01-11 14:11:00,43.2,42.4,29.43,South,180,5.0,5.0,97,0.00,,,0.00,95,Wunderground v.1.15,2013-01-11 20:11:00,
2013-01-11 14:14:00,43.3,42.5,29.43,South,180,4.0,6.0,97,0.00,,,0.00,98,Wunderground v.1.15,2013-01-11 20:14:00,
2013-01-11 14:16:00,43.2,42.1,29.43,SSE,163,6.0,10.0,96,0.00,,,0.00,97,Wunderground v.1.15,2013-01-11 20:16:00,
2013-01-11 14:17:00,43.2,42.1,29.43,SSE,157,5.0,10.0,96,0.00,,,0.00,97,Wunderground v.1.15,2013-01-11 20:17:00,
2013-01-11 14:20:00,43.5,42.7,29.43,SSE,168,5.0,5.0,97,0.00,,,0.00,91,Wunderground v.1.15,2013-01-11 20:20:00,
2013-01-11 14:23:00,43.8,43.0,29.43,SSE,155,6.0,8.0,97,0.00,,,0.00,86,Wunderground v.1.15,2013-01-11 20:23:00,
2013-01-11 14:25:00,43.8,42.7,29.43,South,173,5.0,8.0,96,0.00,,,0.00,86,Wunderground v.1.15,2013-01-11 20:25:00,
2013-01-11 14:27:00,43.7,42.6,29.43,SSE,166,5.0,8.0,96,0.00,,,0.00,88,Wunderground v.1.15,2013-01-11 20:27:00,
2013-01-11 14:29:00,43.6,42.5,29.43,SSE,162,4.0,8.0,96,0.00,,,0.00,91,Wunderground v.1.15,2013-01-11 20:29:00,
2013-01-11 14:33:00,43.4,42.3,29.43,South,169,5.0,6.0,96,0.00,,,0.00,107,Wunderground v.1.15,2013-01-11 20:33:00,
2013-01-11 14:34:00,43.4,42.3,29.43,SSE,165,4.0,6.0,96,0.00,,,0.00,116,Wunderground v.1.15,2013-01-11 20:34:00,
2013-01-11 14:38:00,43.4,42.3,29.43,SSE,163,5.0,6.0,96,0.00,,,0.00,127,Wunderground v.1.15,2013-01-11 20:38:00,
2013-01-11 14:39:00,43.5,42.4,29.43,SSE,159,6.0,6.0,96,0.00,,,0.00,128,Wunderground v.1.15,2013-01-11 20:39:00,
2013-01-11 14:40:00,43.5,42.4,29.42,SSE,159,5.0,5.0,96,0.00,,,0.00,128,Wunderground v.1.15,2013-01-11 20:40:00,
2013-01-11 14:44:00,43.8,42.7,29.42,SSE,162,5.0,6.0,96,0.00,,,0.00,130,Wunderground v.1.15,2013-01-11 20:44:00,
2013-01-11 14:46:00,43.7,42.4,29.42,SSE,164,4.0,6.0,95,0.00,,,0.00,134,Wunderground v.1.15,2013-01-11 20:46:00,
2013-01-11 14:47:00,43.8,42.5,29.43,SSE,164,5.0,6.0,95,0.00,,,0.00,134,Wunderground v.1.15,2013-01-11 20:47:00,
2013-01-11 14:49:00,44.0,42.9,29.43,South,171,3.0,6.0,96,0.00,,,0.00,135,Wunderground v.1.15,2013-01-11 20:49:00,
2013-01-11 14:52:00,44.0,42.7,29.43,South,177,4.0,4.0,95,0.00,,,0.00,160,Wunderground v.1.15,2013-01-11 20:52:00,
2013-01-11 14:54:00,43.8,42.5,29.43,South,177,2.0,4.0,95,0.00,,,0.00,165,Wunderground v.1.15,2013-01-11 20:54:00,
2013-01-11 14:55:00,43.8,42.5,29.43,South,177,2.0,4.0,95,0.00,,,0.00,165,Wunderground v.1.15,2013-01-11 20:55:00,
2013-01-11 14:58:00,43.5,42.2,29.43,South,174,2.0,4.0,95,0.00,,,0.00,190,Wunderground v.1.15,2013-01-11 20:58:00,
2013-01-11 15:01:00,43.5,42.2,29.43,South,173,1.0,2.0,95,0.00,,,0.00,174,Wunderground v.1.15,2013-01-11 21:01:00,
2013-01-11 15:02:00,43.5,42.2,29.43,South,171,2.0,2.0,95,0.00,,,0.00,165,Wunderground v.1.15,2013-01-11 21:02:00,
2013-01-11 15:03:00,43.5,42.2,29.43,South,169,3.0,3.0,95,0.00,,,0.00,169,Wunderground v.1.15,2013-01-11 21:03:00,
2013-01-11 15:04:00,43.5,42.2,29.43,South,169,2.0,3.0,95,0.00,,,0.00,163,Wunderground v.1.15,2013-01-11 21:04:00,
2013-01-11 15:06:00,43.5,42.2,29.43,SSE,155,2.0,4.0,95,0.00,,,0.00,130,Wunderground v.1.15,2013-01-11 21:06:00,
2013-01-11 15:09:00,43.7,42.4,29.42,SSE,151,4.0,6.0,95,0.00,,,0.00,142,Wunderground v.1.15,2013-01-11 21:09:00,
2013-01-11 15:11:00,44.0,42.7,29.42,SSE,153,4.0,5.0,95,0.00,,,0.00,206,Wunderground v.1.15,2013-01-11 21:11:00,
2013-01-11 15:13:00,44.5,43.2,29.42,SSE,151,2.0,5.0,95,0.00,,,0.00,206,Wunderground v.1.15,2013-01-11 21:13:00,
2013-01-11 15:15:00,44.9,43.6,29.42,SSE,161,2.0,5.0,95,0.00,,,0.00,309,Wunderground v.1.15,2013-01-11 21:15:00,
2013-01-11 15:17:00,45.1,43.8,29.42,SSE,156,3.0,5.0,95,0.00,,,0.00,285,Wunderground v.1.15,2013-01-11 21:17:00,
2013-01-11 15:18:00,45.4,43.8,29.42,SE,146,5.0,5.0,94,0.00,,,0.00,269,Wunderground v.1.15,2013-01-11 21:18:00,
2013-01-11 15:20:00,45.5,43.9,29.42,SSE,158,3.0,4.0,94,0.00,,,0.00,255,Wunderground v.1.15,2013-01-11 21:20:00,
2013-01-11 15:21:00,45.6,44.0,29.42,SSE,156,3.0,6.0,94,0.00,,,0.00,251,Wunderground v.1.15,2013-01-11 21:21:00,
2013-01-11 15:23:00,45.6,43.7,29.42,SSE,151,5.0,6.0,93,0.00,,,0.00,241,Wunderground v.1.15,2013-01-11 21:23:00,
2013-01-11 15:24:00,45.6,43.7,29.42,SSE,159,5.0,6.0,93,0.00,,,0.00,241,Wunderground v.1.15,2013-01-11 21:24:00,
2013-01-11 15:25:00,45.7,43.8,29.42,SE,141,5.0,6.0,93,0.00,,,0.00,234,Wunderground v.1.15,2013-01-11 21:25:00,
2013-01-11 15:27:00,46.0,44.1,29.43,SSE,166,6.0,6.0,93,0.00,,,0.00,229,Wunderground v.1.15,2013-01-11 21:27:00,
2013-01-11 15:29:00,45.9,44.0,29.43,SSE,166,4.0,6.0,93,0.00,,,0.00,229,Wunderground v.1.15,2013-01-11 21:29:00,
2013-01-11 15:30:00,46.0,43.8,29.42,SSE,162,3.0,4.0,92,0.00,,,0.00,220,Wunderground v.1.15,2013-01-11 21:30:00,
2013-01-11 15:32:00,45.9,43.7,29.42,SSE,159,4.0,4.0,92,0.00,,,0.00,213,Wunderground v.1.15,2013-01-11 21:32:00,
2013-01-11 15:34:00,46.0,43.8,29.42,SSE,157,5.0,6.0,92,0.00,,,0.00,206,Wunderground v.1.15,2013-01-11 21:34:00,
2013-01-11 15:36:00,46.5,44.3,29.43,SSE,167,5.0,8.0,92,0.00,,,0.00,197,Wunderground v.1.15,2013-01-11 21:36:00,
2013-01-11 15:37:00,46.6,44.4,29.43,South,169,6.0,8.0,92,0.00,,,0.00,193,Wunderground v.1.15,2013-01-11 21:37:00,
2013-01-11 15:38:00,46.6,44.1,29.43,South,169,4.0,8.0,91,0.00,,,0.00,186,Wunderground v.1.15,2013-01-11 21:38:00,
2013-01-11 15:39:00,46.6,44.1,29.43,SSE,164,4.0,8.0,91,0.00,,,0.00,183,Wunderground v.1.15,2013-01-11 21:39:00,
2013-01-11 15:42:00,46.2,43.4,29.43,South,171,3.0,5.0,90,0.00,,,0.00,165,Wunderground v.1.15,2013-01-11 21:42:00,
2013-01-11 15:44:00,46.0,43.5,29.43,South,169,4.0,5.0,91,0.00,,,0.00,148,Wunderground v.1.15,2013-01-11 21:44:00,
2013-01-11 15:45:00,45.9,43.4,29.43,SSE,163,3.0,5.0,91,0.00,,,0.00,142,Wunderground v.1.15,2013-01-11 21:45:00,
2013-01-11 15:47:00,46.0,43.5,29.43,SSE,158,5.0,7.0,91,0.00,,,0.00,128,Wunderground v.1.15,2013-01-11 21:47:00,
2013-01-11 15:48:00,46.0,43.8,29.43,SSE,166,6.0,7.0,92,0.00,,,0.00,151,Wunderground v.1.15,2013-01-11 21:48:00,
2013-01-11 15:50:00,45.8,43.0,29.43,SSE,167,3.0,4.0,90,0.00,,,0.00,107,Wunderground v.1.15,2013-01-11 21:50:00,
2013-01-11 15:52:00,45.4,42.6,29.43,SSE,155,4.0,4.0,90,0.00,,,0.00,79,Wunderground v.1.15,2013-01-11 21:52:00,
2013-01-11 15:53:00,45.3,42.8,29.43,SSE,159,4.0,6.0,91,0.00,,,0.00,97,Wunderground v.1.15,2013-01-11 21:53:00,
2013-01-11 15:54:00,45.3,42.8,29.43,SSE,163,4.0,6.0,91,0.00,,,0.00,97,Wunderground v.1.15,2013-01-11 21:54:00,
2013-01-11 15:55:00,45.1,42.6,29.42,SSE,159,4.0,6.0,91,0.00,,,0.00,90,Wunderground v.1.15,2013-01-11 21:55:00,
2013-01-11 15:57:00,45.0,42.5,29.42,SSE,160,4.0,6.0,91,0.00,,,0.00,111,Wunderground v.1.15,2013-01-11 21:57:00,
2013-01-11 15:59:00,45.0,42.8,29.43,South,169,3.0,6.0,92,0.00,,,0.00,118,Wunderground v.1.15,2013-01-11 21:59:00,
2013-01-11 16:00:00,45.1,42.9,29.43,SSE,167,3.0,4.0,92,0.00,,,0.00,116,Wunderground v.1.15,2013-01-11 22:00:00,
2013-01-11 16:02:00,45.2,43.0,29.43,SSE,168,5.0,5.0,92,0.00,,,0.00,105,Wunderground v.1.15,2013-01-11 22:02:00,
2013-01-11 16:04:00,45.2,42.7,29.42,SSE,159,4.0,5.0,91,0.00,,,0.00,109,Wunderground v.1.15,2013-01-11 22:04:00,
2013-01-11 16:05:00,45.0,42.5,29.42,SSE,153,4.0,5.0,91,0.00,,,0.00,102,Wunderground v.1.15,2013-01-11 22:05:00,
2013-01-11 16:07:00,45.0,42.5,29.42,SSE,156,4.0,5.0,91,0.00,,,0.00,95,Wunderground v.1.15,2013-01-11 22:07:00,
2013-01-11 16:09:00,45.2,43.0,29.42,SSE,162,4.0,8.0,92,0.00,,,0.00,98,Wunderground v.1.15,2013-01-11 22:09:00,
2013-01-11 16:10:00,45.3,42.8,29.42,SSE,159,5.0,6.0,91,0.00,,,0.00,91,Wunderground v.1.15,2013-01-11 22:10:00,
2013-01-11 16:12:00,45.4,42.9,29.42,SSE,165,4.0,8.0,91,0.00,,,0.00,83,Wunderground v.1.15,2013-01-11 22:12:00,
2013-01-11 16:17:00,45.2,42.7,29.42,SSE,158,7.0,9.0,91,0.00,,,0.00,65,Wunderground v.1.15,2013-01-11 22:17:00,
2013-01-11 16:19:00,45.2,42.7,29.42,SSE,159,5.0,9.0,91,0.00,,,0.00,63,Wunderground v.1.15,2013-01-11 22:19:00,
2013-01-11 16:21:00,45.1,42.6,29.42,SSE,152,7.0,7.0,91,0.00,,,0.00,56,Wunderground v.1.15,2013-01-11 22:21:00,
2013-01-11 16:22:00,45.1,42.6,29.41,SSE,165,6.0,8.0,91,0.00,,,0.00,56,Wunderground v.1.15,2013-01-11 22:22:00,
2013-01-11 16:24:00,45.2,42.7,29.42,South,173,6.0,8.0,91,0.00,,,0.00,54,Wunderground v.1.15,2013-01-11 22:24:00,
2013-01-11 16:25:00,45.3,42.8,29.41,SSE,165,7.0,8.0,91,0.00,,,0.00,51,Wunderground v.1.15,2013-01-11 22:25:00,
2013-01-11 16:27:00,45.4,42.9,29.41,SSE,159,6.0,8.0,91,0.00,,,0.00,51,Wunderground v.1.15,2013-01-11 22:27:00,
2013-01-11 16:30:00,45.0,42.2,29.41,SSE,165,5.0,6.0,90,0.00,,,0.00,62,Wunderground v.1.15,2013-01-11 22:30:00,
2013-01-11 16:31:00,44.9,42.1,29.42,SSE,158,7.0,7.0,90,0.00,,,0.00,60,Wunderground v.1.15,2013-01-11 22:31:00,
2013-01-11 16:33:00,44.8,42.3,29.41,SSE,158,6.0,7.0,91,0.00,,,0.00,56,Wunderground v.1.15,2013-01-11 22:33:00,
2013-01-11 16:34:00,44.7,42.2,29.41,South,170,8.0,8.0,91,0.00,,,0.00,49,Wunderground v.1.15,2013-01-11 22:34:00,
2013-01-11 16:36:00,44.6,42.1,29.42,SSE,157,6.0,8.0,91,0.00,,,0.00,42,Wunderground v.1.15,2013-01-11 22:36:00,
2013-01-11 16:38:00,44.6,42.1,29.41,SSE,157,6.0,8.0,91,0.00,,,0.00,35,Wunderground v.1.15,2013-01-11 22:38:00,
2013-01-11 16:40:00,44.6,42.1,29.41,SSE,155,5.0,6.0,91,0.00,,,0.00,30,Wunderground v.1.15,2013-01-11 22:40:00,
2013-01-11 16:42:00,44.6,42.1,29.41,SSE,159,7.0,8.0,91,0.00,,,0.00,26,Wunderground v.1.15,2013-01-11 22:42:00,
2013-01-11 16:43:00,44.6,42.1,29.41,SSE,152,7.0,8.0,91,0.00,,,0.00,26,Wunderground v.1.15,2013-01-11 22:43:00,
2013-01-11 16:45:00,44.6,42.1,29.41,SSE,166,6.0,8.0,91,0.00,,,0.00,21,Wunderground v.1.15,2013-01-11 22:45:00,
2013-01-11 16:47:00,44.6,42.1,29.42,SSE,161,5.0,8.0,91,0.00,,,0.00,21,Wunderground v.1.15,2013-01-11 22:47:00,
2013-01-11 16:48:00,44.4,41.9,29.42,SSE,163,3.0,8.0,91,0.00,,,0.00,19,Wunderground v.1.15,2013-01-11 22:48:00,
2013-01-11 16:51:00,44.2,41.7,29.42,SSE,164,6.0,6.0,91,0.00,,,0.00,18,Wunderground v.1.15,2013-01-11 22:51:00,
2013-01-11 16:52:00,44.1,41.6,29.42,SSE,161,6.0,7.0,91,0.00,,,0.00,16,Wunderground v.1.15,2013-01-11 22:52:00,
2013-01-11 16:53:00,44.1,41.6,29.42,SSE,165,6.0,7.0,91,0.00,,,0.00,16,Wunderground v.1.15,2013-01-11 22:53:00,
2013-01-11 16:54:00,44.1,41.6,29.42,SSE,157,6.0,8.0,91,0.00,,,0.00,14,Wunderground v.1.15,2013-01-11 22:54:00,
2013-01-11 16:56:00,44.2,42.0,29.41,SSE,158,6.0,8.0,92,0.00,,,0.00,12,Wunderground v.1.15,2013-01-11 22:56:00,
2013-01-11 16:58:00,44.2,42.0,29.41,SSE,147,7.0,8.0,92,0.00,,,0.00,11,Wunderground v.1.15,2013-01-11 22:58:00,
2013-01-11 17:00:00,44.2,41.7,29.41,SSE,156,9.0,9.0,91,0.00,,,0.00,9,Wunderground v.1.15,2013-01-11 23:00:00,
2013-01-11 17:03:00,44.7,42.5,29.41,SSE,163,8.0,11.0,92,0.00,,,0.00,7,Wunderground v.1.15,2013-01-11 23:03:00,
2013-01-11 17:04:00,44.8,42.6,29.41,SSE,156,9.0,11.0,92,0.00,,,0.00,7,Wunderground v.1.15,2013-01-11 23:04:00,
2013-01-11 17:05:00,45.0,42.5,29.41,South,173,12.0,12.0,91,0.00,,,0.00,5,Wunderground v.1.15,2013-01-11 23:05:00,
2013-01-11 17:07:00,45.1,42.6,29.41,SSE,163,8.0,12.0,91,0.00,,,0.00,0,Wunderground v.1.15,2013-01-11 23:07:00,
2013-01-11 17:08:00,45.2,42.4,29.41,South,169,8.0,12.0,90,0.00,,,0.00,0,Wunderground v.1.15,2013-01-11 23:08:00,
2013-01-11 17:11:00,45.2,42.4,29.41,South,172,6.0,9.0,90,0.00,,,0.00,0,Wunderground v.1.15,2013-01-11 23:11:00,
2013-01-11 17:14:00,44.8,41.8,29.41,SSE,159,8.0,9.0,89,0.00,,,0.00,0,Wunderground v.1.15,2013-01-11 23:14:00,
2013-01-11 17:17:00,44.3,41.6,29.41,SSE,161,5.0,9.0,90,0.00,,,0.00,0,Wunderground v.1.15,2013-01-11 23:17:00,
2013-01-11 17:19:00,44.2,41.5,29.41,South,171,7.0,9.0,90,0.00,,,0.00,0,Wunderground v.1.15,2013-01-11 23:19:00,
2013-01-11 17:21:00,44.1,41.6,29.41,SSE,150,7.0,7.0,91,0.00,,,0.00,0,Wunderground v.1.15,2013-01-11 23:21:00,
2013-01-11 17:22:00,44.1,41.4,29.41,South,173,6.0,7.0,90,0.00,,,0.00,0,Wunderground v.1.15,2013-01-11 23:22:00,
2013-01-11 17:24:00,44.0,41.3,29.41,SSE,165,6.0,8.0,90,0.00,,,0.00,0,Wunderground v.1.15,2013-01-11 23:24:00,
2013-01-11 17:25:00,44.0,41.5,29.41,South,188,7.0,8.0,91,0.00,,,0.00,0,Wunderground v.1.15,2013-01-11 23:25:00,
2013-01-11 17:27:00,44.0,41.5,29.42,SSE,165,6.0,9.0,91,0.00,,,0.00,0,Wunderground v.1.15,2013-01-11 23:27:00,
2013-01-11 17:28:00,44.0,41.3,29.41,SSE,156,5.0,9.0,90,0.00,,,0.00,0,Wunderground v.1.15,2013-01-11 23:28:00,
2013-01-11 17:29:00,43.9,41.2,29.41,SSE,162,6.0,9.0,90,0.00,,,0.00,0,Wunderground v.1.15,2013-01-11 23:29:00,
2013-01-11 17:32:00,43.8,41.3,29.41,SSE,157,9.0,9.0,91,0.00,,,0.00,0,Wunderground v.1.15,2013-01-11 23:32:00,
2013-01-11 17:33:00,43.8,41.3,29.41,South,171,7.0,9.0,91,0.00,,,0.00,0,Wunderground v.1.15,2013-01-11 23:33:00,
2013-01-11 17:35:00,43.9,41.4,29.41,SSE,155,12.0,12.0,91,0.00,,,0.00,0,Wunderground v.1.15,2013-01-11 23:35:00,
2013-01-11 17:40:00,44.6,42.1,29.41,SSE,159,9.0,9.0,91,0.00,,,0.00,0,Wunderground v.1.15,2013-01-11 23:40:00,
2013-01-11 17:42:00,45.1,42.6,29.40,SSE,158,7.0,10.0,91,0.00,,,0.00,0,Wunderground v.1.15,2013-01-11 23:42:00,
2013-01-11 17:45:00,45.2,42.4,29.40,South,171,7.0,12.0,90,0.00,,,0.00,0,Wunderground v.1.15,2013-01-11 23:45:00,
2013-01-11 17:49:00,45.2,42.2,29.41,SSE,164,7.0,12.0,89,0.00,,,0.00,0,Wunderground v.1.15,2013-01-11 23:49:00,
2013-01-11 17:50:00,45.0,42.0,29.40,SSE,159,9.0,9.0,89,0.00,,,0.00,0,Wunderground v.1.15,2013-01-11 23:50:00,
2013-01-11 17:51:00,44.8,41.5,29.40,SSE,162,6.0,9.0,88,0.00,,,0.00,0,Wunderground v.1.15,2013-01-11 23:51:00,
2013-01-11 17:55:00,44.6,41.8,29.40,SSE,161,10.0,13.0,90,0.00,,,0.00,0,Wunderground v.1.15,2013-01-11 23:55:00,
2013-01-11 17:56:00,44.7,41.9,29.40,SSE,157,7.0,13.0,90,0.00,,,0.00,0,Wunderground v.1.15,2013-01-11 23:56:00,
2013-01-11 18:00:00,45.0,42.2,29.40,SSE,161,10.0,10.0,90,0.00,,,0.00,0,Wunderground v.1.15,2013-01-12 00:00:00,
2013-01-11 18:01:00,45.1,42.3,29.40,SSE,163,8.0,12.0,90,0.00,,,0.00,0,Wunderground v.1.15,2013-01-12 00:01:00,
2013-01-11 18:03:00,45.2,42.2,29.40,South,171,10.0,12.0,89,0.00,,,0.00,0,Wunderground v.1.15,2013-01-12 00:03:00,
2013-01-11 18:06:00,45.2,42.2,29.40,South,173,9.0,12.0,89,0.00,,,0.00,0,Wunderground v.1.15,2013-01-12 00:06:00,
2013-01-11 18:07:00,45.1,42.1,29.40,South,169,10.0,13.0,89,0.00,,,0.00,0,Wunderground v.1.15,2013-01-12 00:07:00,
2013-01-11 18:09:00,45.0,42.0,29.41,SSE,165,10.0,13.0,89,0.00,,,0.00,0,Wunderground v.1.15,2013-01-12 00:09:00,
2013-01-11 18:11:00,44.8,41.8,29.41,SSE,167,8.0,11.0,89,0.00,,,0.00,0,Wunderground v.1.15,2013-01-12 00:11:00,
2013-01-11 18:12:00,44.8,41.8,29.41,SSE,163,9.0,11.0,89,0.00,,,0.00,0,Wunderground v.1.15,2013-01-12 00:12:00,
2013-01-11 18:13:00,44.8,41.8,29.41,SSE,167,9.0,11.0,89,0.00,,,0.00,0,Wunderground v.1.15,2013-01-12 00:13:00,
2013-01-11 18:14:00,44.8,41.8,29.41,South,175,12.0,12.0,89,0.00,,,0.00,0,Wunderground v.1.15,2013-01-12 00:14:00,
2013-01-11 18:17:00,44.6,41.6,29.41,SSE,168,8.0,12.0,89,0.00,,,0.00,0,Wunderground v.1.15,2013-01-12 00:17:00,
2013-01-11 18:18:00,44.6,41.6,29.41,South,179,10.0,12.0,89,0.00,,,0.00,0,Wunderground v.1.15,2013-01-12 00:18:00,
2013-01-11 18:19:00,44.6,41.8,29.41,South,172,11.0,13.0,90,0.00,,,0.00,0,Wunderground v.1.15,2013-01-12 00:19:00,
2013-01-11 18:22:00,44.5,41.5,29.41,South,171,10.0,12.0,89,0.00,,,0.00,0,Wunderground v.1.15,2013-01-12 00:22:00,
2013-01-11 18:23:00,44.6,41.8,29.40,South,174,11.0,14.0,90,0.00,,,0.00,0,Wunderground v.1.15,2013-01-12 00:23:00,
2013-01-11 18:24:00,44.7,41.9,29.41,South,178,18.0,18.0,90,0.00,,,0.00,0,Wunderground v.1.15,2013-01-12 00:24:00,
2013-01-11 18:26:00,45.1,42.1,29.40,South,186,11.0,18.0,89,0.00,,,0.00,0,Wunderground v.1.15,2013-01-12 00:26:00,
2013-01-11 18:28:00,45.2,42.2,29.40,South,190,12.0,18.0,89,0.00,,,0.00,0,Wunderground v.1.15,2013-01-12 00:28:00,
2013-01-11 18:29:00,45.3,42.0,29.40,South,175,10.0,18.0,88,0.00,,,0.00,0,Wunderground v.1.15,2013-01-12 00:29:00,
2013-01-11 18:31:00,45.1,41.5,29.41,South,182,11.0,12.0,87,0.00,,,0.00,0,Wunderground v.1.15,2013-01-12 00:31:00,
2013-01-11 18:34:00,45.0,41.7,29.41,South,181,8.0,16.0,88,0.00,,,0.00,0,Wunderground v.1.15,2013-01-12 00:34:00,
2013-01-11 18:35:00,45.0,41.7,29.41,South,184,12.0,16.0,88,0.00,,,0.00,0,Wunderground v.1.15,2013-01-12 00:35:00,
2013-01-11 18:37:00,45.1,42.1,29.41,South,190,8.0,20.0,89,0.00,,,0.00,0,Wunderground v.1.15,2013-01-12 00:37:00,
2013-01-11 18:38:00,45.1,42.1,29.41,South,179,8.0,20.0,89,0.00,,,0.00,0,Wunderground v.1.15,2013-01-12 00:38:00,
2013-01-11 18:40:00,45.0,41.7,29.41,South,185,11.0,11.0,88,0.00,,,0.00,0,Wunderground v.1.15,2013-01-12 00:40:00,
2013-01-11 18:43:00,45.1,42.1,29.42,SSW,201,11.0,18.0,89,0.00,,,0.00,0,Wunderground v.1.15,2013-01-12 00:43:00,
2013-01-11 18:45:00,45.4,42.3,29.41,South,175,12.0,18.0,89,0.00,,,0.00,0,Wunderground v.1.15,2013-01-12 00:45:00,
2013-01-11 18:46:00,45.4,42.1,29.41,South,172,18.0,18.0,88,0.00,,,0.00,0,Wunderground v.1.15,2013-01-12 00:46:00,
2013-01-11 18:48:00,45.8,42.4,29.41,South,175,15.0,21.0,88,0.00,,,0.00,0,Wunderground v.1.15,2013-01-12 00:48:00,
2013-01-11 18:51:00,45.8,42.2,29.41,SSW,199,16.0,20.0,87,0.00,,,0.00,0,Wunderground v.1.15,2013-01-12 00:51:00,
2013-01-11 18:53:00,45.8,42.2,29.41,South,188,15.0,20.0,87,0.00,,,0.00,0,Wunderground v.1.15,2013-01-12 00:53:00,
2013-01-11 18:55:00,46.1,42.7,29.41,SSE,167,18.0,23.0,88,0.00,,,0.00,0,Wunderground v.1.15,2013-01-12 00:55:00,
2013-01-11 18:57:00,46.1,42.4,29.41,SSW,212,13.0,23.0,87,0.00,,,0.00,0,Wunderground v.1.15,2013-01-12 00:57:00,
2013-01-11 18:58:00,46.0,42.3,29.41,SSW,197,17.0,23.0,87,0.00,,,0.00,0,Wunderground v.1.15,2013-01-12 00:58:00,
2013-01-11 19:00:00,46.0,42.3,29.41,SSW,196,14.0,16.0,87,0.00,,,0.00,0,Wunderground v.1.15,2013-01-12 01:00:00,
2013-01-11 19:02:00,45.8,42.2,29.41,SSW,196,18.0,18.0,87,0.00,,,0.00,0,Wunderground v.1.15,2013-01-12 01:02:00,
2013-01-11 19:03:00,45.8,42.2,29.42,SSW,194,15.0,18.0,87,0.00,,,0.00,0,Wunderground v.1.15,2013-01-12 01:03:00,
2013-01-11 19:05:00,45.7,42.1,29.41,SSW,204,16.0,18.0,87,0.00,,,0.00,0,Wunderground v.1.15,2013-01-12 01:05:00,
2013-01-11 19:07:00,45.6,42.0,29.41,SSW,198,15.0,18.0,87,0.00,,,0.00,0,Wunderground v.1.15,2013-01-12 01:07:00,
2013-01-11 19:08:00,45.6,42.3,29.41,SSW,201,20.0,21.0,88,0.00,,,0.00,0,Wunderground v.1.15,2013-01-12 01:08:00,
2013-01-11 19:10:00,45.7,42.3,29.41,SSW,198,10.0,15.0,88,0.00,,,0.00,0,Wunderground v.1.15,2013-01-12 01:10:00,
2013-01-11 19:12:00,45.6,42.3,29.41,South,188,16.0,21.0,88,0.00,,,0.00,0,Wunderground v.1.15,2013-01-12 01:12:00,
2013-01-11 19:15:00,45.5,42.2,29.41,SSW,192,16.0,21.0,88,0.00,,,0.00,0,Wunderground v.1.15,2013-01-12 01:15:00,
2013-01-11 19:17:00,45.4,41.8,29.41,SSW,198,14.0,21.0,87,0.00,,,0.00,0,Wunderground v.1.15,2013-01-12 01:17:00,
2013-01-11 19:19:00,45.3,42.0,29.42,South,182,11.0,21.0,88,0.00,,,0.00,0,Wunderground v.1.15,2013-01-12 01:19:00,
2013-01-11 19:20:00,45.2,41.9,29.41,South,180,15.0,15.0,88,0.00,,,0.00,0,Wunderground v.1.15,2013-01-12 01:20:00,
2013-01-11 19:23:00,45.4,42.1,29.42,South,188,12.0,18.0,88,0.00,,,0.00,0,Wunderground v.1.15,2013-01-12 01:23:00,
2013-01-11 19:24:00,45.4,42.1,29.42,South,182,14.0,18.0,88,0.00,,,0.00,0,Wunderground v.1.15,2013-01-12 01:24:00,
2013-01-11 19:25:00,45.3,42.0,29.42,South,173,11.0,18.0,88,0.00,,,0.00,0,Wunderground v.1.15,2013-01-12 01:25:00,
2013-01-11 19:29:00,45.3,42.0,29.42,South,184,10.0,18.0,88,0.00,,,0.00,0,Wunderground v.1.15,2013-01-12 01:29:00,
2013-01-11 19:31:00,45.3,42.0,29.42,South,187,13.0,19.0,88,0.00,,,0.00,0,Wunderground v.1.15,2013-01-12 01:31:00,
2013-01-11 19:32:00,45.3,42.0,29.42,SSW,200,8.0,19.0,88,0.00,,,0.00,0,Wunderground v.1.15,2013-01-12 01:32:00,
2013-01-11 19:34:00,45.1,41.8,29.42,South,188,14.0,19.0,88,0.00,,,0.00,0,Wunderground v.1.15,2013-01-12 01:34:00,
2013-01-11 19:36:00,45.1,41.8,29.42,SSW,206,11.0,19.0,88,0.00,,,0.00,0,Wunderground v.1.15,2013-01-12 01:36:00,
2013-01-11 19:37:00,45.2,42.2,29.42,SSW,194,11.0,19.0,89,0.00,,,0.00,0,Wunderground v.1.15,2013-01-12 01:37:00,
2013-01-11 19:40:00,45.5,42.4,29.42,SSW,204,8.0,13.0,89,0.00,,,0.00,0,Wunderground v.1.15,2013-01-12 01:40:00,
2013-01-11 19:45:00,45.7,42.3,29.41,South,183,11.0,18.0,88,0.00,,,0.00,0,Wunderground v.1.15,2013-01-12 01:45:00,
2013-01-11 19:48:00,45.7,42.3,29.41,South,185,10.0,18.0,88,0.00,,,0.00,0,Wunderground v.1.15,2013-01-12 01:48:00,
2013-01-11 19:50:00,45.7,42.3,29.41,South,178,12.0,13.0,88,0.00,,,0.00,0,Wunderground v.1.15,2013-01-12 01:50:00,
2013-01-11 19:55:00,45.8,42.4,29.41,SSW,197,11.0,20.0,88,0.00,,,0.00,0,Wunderground v.1.15,2013-01-12 01:55:00,
2013-01-11 19:56:00,45.8,42.4,29.41,South,191,17.0,20.0,88,0.00,,,0.00,0,Wunderground v.1.15,2013-01-12 01:56:00,
2013-01-11 20:00:00,46.0,42.6,29.41,South,180,13.0,14.0,88,0.00,,,0.00,0,Wunderground v.1.15,2013-01-12 02:00:00,
2013-01-11 20:01:00,46.0,42.6,29.41,South,188,13.0,14.0,88,0.00,,,0.00,0,Wunderground v.1.15,2013-01-12 02:01:00,
2013-01-11 20:03:00,46.0,42.3,29.41,South,186,17.0,18.0,87,0.00,,,0.00,0,Wunderground v.1.15,2013-01-12 02:03:00,
2013-01-11 20:06:00,45.9,42.5,29.41,South,186,10.0,18.0,88,0.00,,,0.00,0,Wunderground v.1.15,2013-01-12 02:06:00,
2013-01-11 20:07:00,45.9,42.5,29.41,SSW,192,12.0,18.0,88,0.00,,,0.00,0,Wunderground v.1.15,2013-01-12 02:07:00,
2013-01-11 20:11:00,45.6,42.0,29.42,South,190,14.0,14.0,87,0.00,,,0.00,0,Wunderground v.1.15,2013-01-12 02:11:00,
2013-01-11 20:12:00,45.6,42.3,29.42,SSW,192,14.0,16.0,88,0.00,,,0.00,0,Wunderground v.1.15,2013-01-12 02:12:00,
2013-01-11 20:13:00,45.5,42.2,29.41,SSW,198,16.0,16.0,88,0.00,,,0.00,0,Wunderground v.1.15,2013-01-12 02:13:00,
2013-01-11 20:15:00,45.7,42.6,29.41,SSW,202,13.0,16.0,89,0.00,,,0.00,0,Wunderground v.1.15,2013-01-12 02:15:00,
2013-01-11 20:18:00,46.0,42.6,29.41,SSW,193,13.0,21.0,88,0.00,,,0.00,0,Wunderground v.1.15,2013-01-12 02:18:00,
2013-01-11 20:20:00,46.0,42.6,29.41,SSW,193,13.0,14.0,88,0.00,,,0.00,0,Wunderground v.1.15,2013-01-12 02:20:00,
2013-01-11 20:21:00,45.9,42.5,29.41,SSW,194,14.0,15.0,88,0.00,,,0.00,0,Wunderground v.1.15,2013-01-12 02:21:00,
2013-01-11 20:24:00,45.9,42.5,29.42,SSW,197,17.0,21.0,88,0.00,,,0.00,0,Wunderground v.1.15,2013-01-12 02:24:00,
2013-01-11 20:26:00,46.0,42.6,29.42,South,182,14.0,21.0,88,0.00,,,0.00,0,Wunderground v.1.15,2013-01-12 02:26:00,
2013-01-11 20:28:00,46.0,42.6,29.42,South,186,17.0,21.0,88,0.00,,,0.00,0,Wunderground v.1.15,2013-01-12 02:28:00,
2013-01-11 20:31:00,46.1,42.7,29.41,South,189,17.0,17.0,88,0.00,,,0.00,0,Wunderground v.1.15,2013-01-12 02:31:00,
2013-01-11 20:33:00,46.1,42.4,29.42,South,183,20.0,20.0,87,0.00,,,0.00,0,Wunderground v.1.15,2013-01-12 02:33:00,
2013-01-11 20:35:00,46.4,43.0,29.42,SSW,194,16.0,21.0,88,0.00,,,0.00,0,Wunderground v.1.15,2013-01-12 02:35:00,
2013-01-11 20:36:00,46.4,43.0,29.42,SSW,196,16.0,21.0,88,0.00,,,0.00,0,Wunderground v.1.15,2013-01-12 02:36:00,
2013-01-11 20:38:00,46.4,42.7,29.42,South,183,13.0,21.0,87,0.00,,,0.00,0,Wunderground v.1.15,2013-01-12 02:38:00,
2013-01-11 20:40:00,46.4,42.7,29.42,South,181,21.0,21.0,87,0.00,,,0.00,0,Wunderground v.1.15,2013-01-12 02:40:00,
2013-01-11 20:43:00,46.5,43.1,29.41,South,188,17.0,21.0,88,0.00,,,0.00,0,Wunderground v.1.15,2013-01-12 02:43:00,
2013-01-11 20:44:00,46.5,43.1,29.41,South,190,16.0,21.0,88,0.00,,,0.00,0,Wunderground v.1.15,2013-01-12 02:44:00,
2013-01-11 20:47:00,46.7,43.0,29.42,South,190,12.0,21.0,87,0.00,,,0.00,0,Wunderground v.1.15,2013-01-12 02:47:00,
2013-01-11 20:49:00,46.6,42.9,29.41,SSW,194,16.0,21.0,87,0.00,,,0.00,0,Wunderground v.1.15,2013-01-12 02:49:00,
2013-01-11 20:52:00,46.5,42.8,29.42,South,172,16.0,18.0,87,0.00,,,0.00,0,Wunderground v.1.15,2013-01-12 02:52:00,
2013-01-11 20:53:00,46.6,42.9,29.42,South,190,20.0,20.0,87,0.00,,,0.00,0,Wunderground v.1.15,2013-01-12 02:53:00,
2013-01-11 20:57:00,46.7,43.0,29.42,South,190,13.0,22.0,87,0.00,,,0.00,0,Wunderground v.1.15,2013-01-12 02:57:00,
2013-01-11 21:02:00,46.8,43.4,29.42,South,191,13.0,26.0,88,0.00,,,0.00,0,Wunderground v.1.15,2013-01-12 03:02:00,
2013-01-11 21:03:00,46.9,43.2,29.42,SSW,194,22.0,26.0,87,0.00,,,0.00,0,Wunderground v.1.15,2013-01-12 03:03:00,
2013-01-11 21:05:00,46.8,42.8,29.42,South,184,19.0,26.0,86,0.00,,,0.00,0,Wunderground v.1.15,2013-01-12 03:05:00,
2013-01-11 21:07:00,46.8,43.1,29.43,SSW,209,16.0,26.0,87,0.00,,,0.00,0,Wunderground v.1.15,2013-01-12 03:07:00,
2013-01-11 21:08:00,46.8,43.1,29.42,South,191,18.0,26.0,87,0.00,,,0.00,0,Wunderground v.1.15,2013-01-12 03:08:00,
2013-01-11 21:09:00,46.8,42.8,29.42,South,186,15.0,26.0,86,0.00,,,0.00,0,Wunderground v.1.15,2013-01-12 03:09:00,
2013-01-11 21:14:00,47.0,43.0,29.43,South,188,16.0,21.0,86,0.00,,,0.00,0,Wunderground v.1.15,2013-01-12 03:14:00,
2013-01-11 21:16:00,47.0,43.0,29.42,SSW,200,17.0,23.0,86,0.00,,,0.00,0,Wunderground v.1.15,2013-01-12 03:16:00,
2013-01-11 21:19:00,47.0,43.0,29.43,SSW,196,17.0,23.0,86,0.00,,,0.00,0,Wunderground v.1.15,2013-01-12 03:19:00,
2013-01-11 21:20:00,47.0,43.3,29.43,SSW,196,21.0,21.0,87,0.00,,,0.00,0,Wunderground v.1.15,2013-01-12 03:20:00,
2013-01-11 21:21:00,47.2,43.5,29.43,South,188,21.0,22.0,87,0.00,,,0.00,0,Wunderground v.1.15,2013-01-12 03:21:00,
2013-01-11 21:25:00,47.7,43.7,29.43,SSW,208,18.0,22.0,86,0.00,,,0.00,0,Wunderground v.1.15,2013-01-12 03:25:00,
2013-01-11 21:26:00,47.8,43.8,29.43,SSW,198,17.0,22.0,86,0.00,,,0.00,0,Wunderground v.1.15,2013-01-12 03:26:00,
2013-01-11 21:28:00,47.8,43.2,29.43,SSW,203,13.0,25.0,84,0.00,,,0.00,0,Wunderground v.1.15,2013-01-12 03:28:00,
2013-01-11 21:31:00,47.6,43.3,29.43,SSW,205,13.0,21.0,85,0.00,,,0.00,0,Wunderground v.1.15,2013-01-12 03:31:00,
2013-01-11 21:32:00,47.5,43.2,29.43,SSW,204,16.0,21.0,85,0.00,,,0.00,0,Wunderground v.1.15,2013-01-12 03:32:00,
2013-01-11 21:34:00,47.5,43.2,29.43,SSW,199,17.0,21.0,85,0.00,,,0.00,0,Wunderground v.1.15,2013-01-12 03:34:00,
2013-01-11 21:35:00,47.4,43.1,29.43,SSW,208,13.0,21.0,85,0.00,,,0.00,0,Wunderground v.1.15,2013-01-12 03:35:00,
2013-01-11 21:37:00,47.3,43.0,29.43,SSW,197,15.0,21.0,85,0.00,,,0.00,0,Wunderground v.1.15,2013-01-12 03:37:00,
2013-01-11 21:39:00,47.4,43.4,29.43,SSW,195,12.0,21.0,86,0.00,,,0.00,0,Wunderground v.1.15,2013-01-12 03:39:00,
2013-01-11 21:41:00,47.3,43.0,29.43,South,191,14.0,17.0,85,0.00,,,0.00,0,Wunderground v.1.15,2013-01-12 03:41:00,
2013-01-11 21:42:00,47.2,43.2,29.43,SSW,209,19.0,19.0,86,0.00,,,0.00,0,Wunderground v.1.15,2013-01-12 03:42:00,
2013-01-11 21:43:00,47.2,43.2,29.43,SSW,196,16.0,19.0,86,0.00,,,0.00,0,Wunderground v.1.15,2013-01-12 03:43:00,
2013-01-11 21:45:00,47.2,43.2,29.43,SW,221,14.0,19.0,86,0.00,,,0.00,0,Wunderground v.1.15,2013-01-12 03:45:00,
2013-01-11 21:47:00,47.0,43.0,29.44,SSW,197,16.0,19.0,86,0.00,,,0.00,0,Wunderground v.1.15,2013-01-12 03:47:00,
2013-01-11 21:49:00,46.9,42.9,29.44,SSW,207,7.0,19.0,86,0.00,,,0.00,0,Wunderground v.1.15,2013-01-12 03:49:00,
2013-01-11 21:51:00,46.8,42.8,29.44,South,185,12.0,22.0,86,0.00,,,0.00,0,Wunderground v.1.15,2013-01-12 03:51:00,
2013-01-11 21:53:00,46.7,42.7,29.44,South,189,14.0,22.0,86,0.00,,,0.00,0,Wunderground v.1.15,2013-01-12 03:53:00,
2013-01-11 21:56:00,46.6,42.6,29.44,SSW,201,13.0,22.0,86,0.00,,,0.00,0,Wunderground v.1.15,2013-01-12 03:56:00,
2013-01-11 22:01:00,46.6,42.6,29.44,SSW,204,14.0,18.0,86,0.00,,,0.00,0,Wunderground v.1.15,2013-01-12 04:01:00,
2013-01-11 22:02:00,46.7,43.0,29.44,SSW,200,17.0,18.0,87,0.00,,,0.00,0,Wunderground v.1.15,2013-01-12 04:02:00,
2013-01-11 22:03:00,46.7,43.0,29.44,SSW,192,12.0,18.0,87,0.00,,,0.00,0,Wunderground v.1.15,2013-01-12 04:03:00,
2013-01-11 22:05:00,46.7,43.0,29.44,South,190,15.0,18.0,87,0.00,,,0.00,0,Wunderground v.1.15,2013-01-12 04:05:00,
2013-01-11 22:06:00,46.7,42.7,29.44,SSW,195,11.0,18.0,86,0.00,,,0.00,0,Wunderground v.1.15,2013-01-12 04:06:00,
2013-01-11 22:08:00,46.7,42.7,29.44,SSW,196,12.0,18.0,86,0.00,,,0.00,0,Wunderground v.1.15,2013-01-12 04:08:00,
2013-01-11 22:11:00,46.9,43.2,29.44,SSW,198,12.0,15.0,87,0.00,,,0.00,0,Wunderground v.1.15,2013-01-12 04:11:00,
2013-01-11 22:13:00,47.0,43.0,29.44,SSW,199,14.0,17.0,86,0.00,,,0.00,0,Wunderground v.1.15,2013-01-12 04:13:00,
2013-01-11 22:15:00,47.0,43.0,29.44,South,191,13.0,17.0,86,0.00,,,0.00,0,Wunderground v.1.15,2013-01-12 04:15:00,
2013-01-11 22:16:00,47.0,43.0,29.44,SSW,211,15.0,17.0,86,0.00,,,0.00,0,Wunderground v.1.15,2013-01-12 04:16:00,
2013-01-11 22:17:00,46.9,42.6,29.44,SSW,194,13.0,17.0,85,0.00,,,0.00,0,Wunderground v.1.15,2013-01-12 04:17:00,
2013-01-11 22:18:00,46.8,42.5,29.45,SSW,204,11.0,17.0,85,0.00,,,0.00,0,Wunderground v.1.15,2013-01-12 04:18:00,
2013-01-11 22:20:00,46.8,42.8,29.45,SSW,207,14.0,17.0,86,0.00,,,0.00,0,Wunderground v.1.15,2013-01-12 04:20:00,
2013-01-11 22:22:00,46.8,42.8,29.44,SSW,203,12.0,17.0,86,0.00,,,0.00,0,Wunderground v.1.15,2013-01-12 04:22:00,
2013-01-11 22:24:00,46.9,42.9,29.45,SSW,209,11.0,17.0,86,0.00,,,0.00,0,Wunderground v.1.15,2013-01-12 04:24:00,
2013-01-11 22:26:00,46.9,42.9,29.45,SSW,205,16.0,18.0,86,0.00,,,0.00,0,Wunderground v.1.15,2013-01-12 04:26:00,
2013-01-11 22:30:00,47.2,43.2,29.45,SW,216,11.0,13.0,86,0.00,,,0.00,0,Wunderground v.1.15,2013-01-12 04:30:00,
2013-01-11 22:31:00,47.2,42.9,29.45,SSW,207,10.0,14.0,85,0.00,,,0.00,0,Wunderground v.1.15,2013-01-12 04:31:00,
2013-01-11 22:33:00,47.2,42.9,29.45,SSW,194,10.0,15.0,85,0.00,,,0.00,0,Wunderground v.1.15,2013-01-12 04:33:00,
2013-01-11 22:35:00,47.2,42.9,29.45,SSW,201,15.0,18.0,85,0.00,,,0.00,0,Wunderground v.1.15,2013-01-12 04:35:00,
2013-01-11 22:37:00,47.2,42.9,29.45,SSW,193,13.0,18.0,85,0.00,,,0.00,0,Wunderground v.1.15,2013-01-12 04:37:00,
2013-01-11 22:39:00,47.2,42.9,29.45,SSW,211,12.0,18.0,85,0.00,,,0.00,0,Wunderground v.1.15,2013-01-12 04:39:00,
2013-01-11 22:41:00,47.3,43.0,29.45,SSW,213,11.0,20.0,85,0.00,,,0.00,0,Wunderground v.1.15,2013-01-12 04:41:00,
2013-01-11 22:42:00,47.3,43.0,29.45,SSW,209,15.0,20.0,85,0.00,,,0.00,0,Wunderground v.1.15,2013-01-12 04:42:00,
2013-01-11 22:44:00,47.3,43.0,29.46,SSW,202,12.0,20.0,85,0.00,,,0.00,0,Wunderground v.1.15,2013-01-12 04:44:00,
2013-01-11 22:47:00,47.5,43.2,29.46,SW,221,12.0,20.0,85,0.00,,,0.00,0,Wunderground v.1.15,2013-01-12 04:47:00,
2013-01-11 22:48:00,47.5,43.2,29.47,SSW,200,16.0,20.0,85,0.00,,,0.00,0,Wunderground v.1.15,2013-01-12 04:48:00,
2013-01-11 22:49:00,47.5,43.2,29.47,South,190,17.0,20.0,85,0.00,,,0.00,0,Wunderground v.1.15,2013-01-12 04:49:00,
2013-01-11 22:54:00,47.6,43.0,29.46,SSW,209,15.0,17.0,84,0.00,,,0.00,0,Wunderground v.1.15,2013-01-12 04:54:00,
2013-01-11 22:56:00,47.7,43.4,29.46,SSW,202,11.0,19.0,85,0.00,,,0.00,0,Wunderground v.1.15,2013-01-12 04:56:00,
2013-01-11 22:59:00,47.7,43.1,29.46,SSW,209,9.0,19.0,84,0.00,,,0.00,0,Wunderground v.1.15,2013-01-12 04:59:00,
2013-01-11 23:00:00,47.7,43.1,29.47,SSW,205,12.0,14.0,84,0.00,,,0.00,0,Wunderground v.1.15,2013-01-12 05:00:00,
2013-01-11 23:02:00,47.6,43.0,29.47,SSW,203,15.0,15.0,84,0.00,,,0.00,0,Wunderground v.1.15,2013-01-12 05:02:00,
2013-01-11 23:05:00,47.7,43.1,29.47,SSW,209,13.0,18.0,84,0.00,,,0.00,0,Wunderground v.1.15,2013-01-12 05:05:00,
2013-01-11 23:07:00,47.7,43.1,29.47,SSW,206,10.0,18.0,84,0.00,,,0.00,0,Wunderground v.1.15,2013-01-12 05:07:00,
2013-01-11 23:08:00,47.6,43.0,29.47,SSW,211,12.0,18.0,84,0.00,,,0.00,0,Wunderground v.1.15,2013-01-12 05:08:00,
2013-01-11 23:09:00,47.5,42.9,29.47,SSW,193,11.0,18.0,84,0.00,,,0.00,0,Wunderground v.1.15,2013-01-12 05:09:00,
2013-01-11 23:11:00,47.5,42.9,29.47,SSW,212,15.0,16.0,84,0.00,,,0.00,0,Wunderground v.1.15,2013-01-12 05:11:00,
2013-01-11 23:12:00,47.6,43.0,29.47,SSW,199,14.0,16.0,84,0.00,,,0.00,0,Wunderground v.1.15,2013-01-12 05:12:00,
2013-01-11 23:13:00,47.6,43.0,29.47,SW,214,13.0,16.0,84,0.00,,,0.00,0,Wunderground v.1.15,2013-01-12 05:13:00,
2013-01-11 23:15:00,47.6,42.7,29.47,SSW,209,13.0,16.0,83,0.00,,,0.00,0,Wunderground v.1.15,2013-01-12 05:15:00,
2013-01-11 23:17:00,47.6,42.7,29.47,SW,216,9.0,17.0,83,0.00,,,0.00,0,Wunderground v.1.15,2013-01-12 05:17:00,
2013-01-11 23:18:00,47.6,42.7,29.47,SSW,203,12.0,18.0,83,0.00,,,0.00,0,Wunderground v.1.15,2013-01-12 05:18:00,
2013-01-11 23:22:00,47.6,42.7,29.47,SSW,209,16.0,16.0,83,0.00,,,0.00,0,Wunderground v.1.15,2013-01-12 05:22:00,
2013-01-11 23:23:00,47.6,42.7,29.48,SW,225,13.0,16.0,83,0.00,,,0.00,0,Wunderground v.1.15,2013-01-12 05:23:00,
2013-01-11 23:24:00,47.6,42.7,29.48,SSW,211,10.0,16.0,83,0.00,,,0.00,0,Wunderground v.1.15,2013-01-12 05:24:00,
2013-01-11 23:27:00,47.5,42.6,29.48,SW,214,13.0,20.0,83,0.00,,,0.00,0,Wunderground v.1.15,2013-01-12 05:27:00,
2013-01-11 23:28:00,47.5,42.3,29.48,SW,216,15.0,21.0,82,0.00,,,0.00,0,Wunderground v.1.15,2013-01-12 05:28:00,
2013-01-11 23:29:00,47.5,42.3,29.48,SW,219,15.0,21.0,82,0.00,,,0.00,0,Wunderground v.1.15,2013-01-12 05:29:00,
2013-01-11 23:33:00,47.7,41.8,29.48,SW,219,15.0,20.0,80,0.00,,,0.00,0,Wunderground v.1.15,2013-01-12 05:33:00,
2013-01-11 23:36:00,47.4,41.5,29.49,SW,223,15.0,20.0,80,0.00,,,0.00,0,Wunderground v.1.15,2013-01-12 05:36:00,
2013-01-11 23:37:00,47.4,41.5,29.49,SW,227,14.0,20.0,80,0.00,,,0.00,0,Wunderground v.1.15,2013-01-12 05:37:00,
2013-01-11 23:41:00,46.7,41.2,29.50,SW,226,16.0,16.0,81,0.00,,,0.00,0,Wunderground v.1.15,2013-01-12 05:41:00,
2013-01-11 23:42:00,46.7,41.2,29.50,SW,232,19.0,19.0,81,0.00,,,0.00,0,Wunderground v.1.15,2013-01-12 05:42:00,
2013-01-11 23:43:00,46.8,41.3,29.50,SW,236,12.0,19.0,81,0.00,,,0.00,0,Wunderground v.1.15,2013-01-12 05:43:00,
2013-01-11 23:46:00,46.8,41.0,29.51,WNW,297,23.0,30.0,80,0.00,,,0.00,0,Wunderground v.1.15,2013-01-12 05:46:00,
2013-01-11 23:48:00,45.4,39.3,29.53,WNW,291,20.0,32.0,79,0.00,,,0.00,0,Wunderground v.1.15,2013-01-12 05:48:00,
2013-01-11 23:49:00,44.0,38.2,29.53,WNW,286,21.0,32.0,80,0.00,,,0.00,0,Wunderground v.1.15,2013-01-12 05:49:00,
2013-01-11 23:51:00,42.2,37.4,29.53,WNW,298,20.0,24.0,83,0.00,,,0.00,0,Wunderground v.1.15,2013-01-12 05:51:00,
2013-01-11 23:54:00,40.9,36.7,29.54,WNW,292,23.0,24.0,85,0.00,,,0.00,0,Wunderground v.1.15,2013-01-12 05:54:00,
2013-01-11 23:56:00,40.0,36.4,29.55,WNW,284,21.0,26.0,87,0.00,,,0.00,0,Wunderground v.1.15,2013-01-12 05:56:00,
2013-01-11 23:59:00,38.7,35.7,29.55,WNW,291,19.0,27.0,89,0.00,,,0.00,0,Wunderground v.1.15,2013-01-12 05:59:00,